KE5WTH-14 Weather Reports


time (UTC)temp
C
wind
direction
speed
KPH
gust
KPH
rain 1hr
cm
rain 24hr
cm
rain mn
cm
humidity
%
barometer
mb
20260509080020 20 134 6.4 14.5 0.00 0.74 0.00 94 1008.5
20260509075918 19 164 6.4 14.5 0.00 0.74 0.00 94 1008.5
20260509075817 19 135 6.4 14.5 0.00 0.74 0.00 94 1008.8
20260509075714 19 120 4.8 9.7 0.00 0.74 0.00 94 1008.8
20260509075612 19 133 4.8 9.7 0.00 0.74 0.00 94 1008.8
20260509075541 19 110 4.8 9.7 0.00 0.74 0.00 94 1008.9
20260509075513 19 131 4.8 9.7 0.00 0.74 0.00 94 1008.9
20260509075411 19 149 4.8 9.7 0.00 0.74 0.00 94 1008.9
20260509075308 19 125 4.8 9.7 0.00 0.74 0.00 94 1009.0
20260509075206 19 138 4.8 9.7 0.00 0.74 0.00 94 1009.0
20260509075104 19 127 4.8 9.7 0.00 0.74 0.00 94 1009.0
20260509075039 19 127 4.8 9.7 0.00 0.74 0.00 94 1009.0
20260509075003 19 103 3.2 9.7 0.00 0.74 0.00 94 1009.0
20260509074907 19 110 4.8 9.7 0.00 0.74 0.00 93 1009.1
20260509074803 19 124 4.8 9.7 0.00 0.74 0.00 93 1009.1
20260509074703 19 140 4.8 9.7 0.00 0.74 0.00 93 1009.0
20260509074603 19 94 6.4 9.7 0.00 0.74 0.00 93 1009.0
20260509074536 19 83 6.4 9.7 0.00 0.74 0.00 93 1009.0
20260509074502 19 141 6.4 9.7 0.00 0.74 0.00 93 1009.0
20260509074402 19 78 6.4 8.0 0.00 0.74 0.00 93 1009.0
20260509074302 19 135 6.4 8.0 0.00 0.74 0.00 93 1009.1
20260509074202 19 133 6.4 8.0 0.00 0.74 0.00 93 1009.2
20260509074102 19 125 4.8 8.0 0.00 0.74 0.00 93 1009.1
20260509074035 19 116 6.4 8.0 0.00 0.74 0.00 93 1009.3
20260509074003 19 134 4.8 8.0 0.00 0.74 0.00 93 1009.3
20260509073904 19 120 4.8 8.0 0.00 0.74 0.00 93 1009.3
20260509073802 19 134 4.8 6.4 0.00 0.74 0.00 93 1009.4
20260509073704 19 118 3.2 6.4 0.00 0.74 0.00 93 1009.4
20260509073603 19 123 4.8 6.4 0.00 0.74 0.00 93 1009.6
20260509073536 19 124 4.8 6.4 0.00 0.74 0.00 93 1009.6
20260509073504 19 120 3.2 6.4 0.00 0.74 0.00 93 1009.6
20260509073403 19 103 3.2 8.0 0.00 0.74 0.00 93 1009.7
20260509073302 19 104 3.2 8.0 0.00 0.74 0.00 93 1009.7
20260509073202 19 116 3.2 8.0 0.00 0.74 0.00 93 1009.8
20260509073102 19 117 3.2 8.0 0.00 0.74 0.00 93 1009.7
20260509073033 19 87 3.2 8.0 0.00 0.74 0.00 93 1009.7
20260509073003 19 110 3.2 8.0 0.00 0.74 0.00 93 1009.7
20260509072940 19 103 3.2 8.0 0.00 0.74 0.00 93 1009.8
20260509072922 19 114 3.2 8.0 0.00 0.74 0.00 93 1009.8
20260509072854 19 109 3.2 8.0 0.00 0.74 0.00 93 1009.8
20260509072825 19 118 3.2 8.0 0.00 0.74 0.00 93 1009.8
20260509072754 19 128 3.2 8.0 0.00 0.74 0.00 93 1009.8
20260509072503 19 123 3.2 8.0 0.00 0.74 0.00 93 1009.8
20260509072400 19 109 3.2 4.8 0.00 0.74 0.00 93 1009.9
20260509072258 19 107 1.6 4.8 0.00 0.74 0.00 93 1009.9
20260509072157 19 107 1.6 4.8 0.00 0.74 0.00 93 1009.9
20260509072055 19 107 1.6 4.8 0.00 0.74 0.00 93 1009.9
20260509072031 19 107 3.2 4.8 0.00 0.74 0.00 93 1009.9
20260509071953 19 107 3.2 4.8 0.00 0.74 0.00 93 1009.9
20260509071852 20 106 3.2 4.8 0.00 0.74 0.00 93 1009.9
20260509071753 20 104 1.6 4.8 0.00 0.74 0.00 93 1009.9
20260509071653 20 99 1.6 4.8 0.00 0.74 0.00 93 1010.0
20260509071553 20 97 1.6 4.8 0.00 0.74 0.00 93 1010.0
20260509071532 20 99 1.6 4.8 0.00 0.74 0.00 93 1010.1
20260509071453 20 99 1.6 4.8 0.00 0.74 0.00 93 1010.1
20260509071353 20 99 3.2 4.8 0.00 0.74 0.00 93 1010.1
20260509071253 20 99 3.2 4.8 0.00 0.74 0.00 92 1010.1
20260509071154 20 110 1.6 4.8 0.00 0.74 0.00 92 1010.1
20260509071053 20 110 3.2 4.8 0.00 0.74 0.00 92 1010.2
20260509071034 20 109 3.2 4.8 0.00 0.74 0.00 92 1010.2
20260509070955 20 109 3.2 4.8 0.00 0.74 0.00 92 1010.2
20260509070853 20 110 1.6 4.8 0.00 0.74 0.00 92 1010.3
20260509070753 20 110 1.6 4.8 0.00 0.74 0.00 92 1010.2
20260509070653 20 109 1.6 4.8 0.00 0.74 0.00 92 1010.3
20260509070555 20 106 1.6 8.0 0.00 0.74 0.00 92 1010.3
20260509070535 20 103 3.2 8.0 0.00 0.74 0.00 92 1010.2
20260509070452 20 102 3.2 8.0 0.00 0.74 0.00 92 1010.2
20260509070352 20 106 3.2 8.0 0.00 0.74 0.00 92 1010.2
20260509070254 20 111 3.2 8.0 0.00 0.74 0.00 92 1010.1
20260509070152 20 111 1.6 8.0 0.00 0.74 0.00 92 1010.0
20260509070053 20 128 1.6 8.0 0.00 0.74 0.00 92 1010.2
20260509070019 20 59 1.6 8.0 0.00 0.74 0.00 92 1010.2
20260509065954 20 58 3.2 8.0 0.00 0.74 0.00 92 1010.2
20260509065854 20 49 3.2 8.0 0.00 0.74 0.00 92 1010.2
20260509065755 20 51 4.8 8.0 0.00 0.74 0.00 92 1010.2
20260509065652 20 51 4.8 8.0 0.00 0.74 0.00 92 1010.2
20260509065553 20 34 4.8 6.4 0.00 0.74 0.00 92 1010.3
20260509065517 20 56 3.2 6.4 0.00 0.74 0.00 92 1010.4
20260509065453 20 68 3.2 6.4 0.00 0.74 0.00 92 1010.4
20260509065353 20 34 3.2 4.8 0.00 0.74 0.00 92 1010.5
20260509065254 20 27 3.2 4.8 0.00 0.74 0.00 92 1010.5
20260509065153 20 27 3.2 4.8 0.00 0.74 0.00 92 1010.4
20260509065056 20 18 3.2 4.8 0.00 0.74 0.00 92 1010.5
20260509065011 20 18 3.2 4.8 0.00 0.74 0.00 92 1010.6
20260509064950 20 18 3.2 4.8 0.00 0.74 0.00 92 1010.6
20260509064848 20 358 1.6 3.2 0.00 0.74 0.00 92 1010.6
20260509064747 20 0 1.6 3.2 0.00 0.74 0.00 92 1010.6
20260509064647 20 357 1.6 3.2 0.00 0.74 0.00 93 1010.7
20260509064543 20 357 1.6 3.2 0.00 0.74 0.00 93 1010.6
20260509064511 20 357 0.0 3.2 0.00 0.74 0.00 93 1010.6
20260509064442 20 357 0.0 4.8 0.00 0.74 0.00 93 1010.6
20260509064340 20 357 0.0 4.8 0.00 0.74 0.00 93 1010.7
20260509064237 20 357 1.6 4.8 0.00 0.74 0.00 93 1010.6
20260509064138 20 357 1.6 4.8 0.00 0.74 0.00 93 1010.7
20260509064009 20 357 1.6 4.8 0.00 0.74 0.00 93 1010.7
20260509063932 20 357 1.6 4.8 0.00 0.74 0.00 93 1010.8
20260509063827 20 357 1.6 4.8 0.00 0.74 0.00 93 1010.7
20260509063726 20 357 1.6 4.8 0.00 0.74 0.00 93 1010.7
20260509063625 20 357 3.2 4.8 0.00 0.74 0.00 93 1010.7
20260509063509 20 357 3.2 4.8 0.00 0.74 0.00 93 1010.8
20260509063435 20 0 3.2 6.4 0.00 0.74 0.00 93 1010.7
20260509063426 20 345 1.6 4.8 0.00 0.74 0.00 93 1010.9
20260509063356 20 345 1.6 6.4 0.00 0.74 0.00 93 1010.8
20260509063325 20 345 3.2 6.4 0.00 0.74 0.00 93 1010.7
20260509063254 20 345 3.2 6.4 0.00 0.74 0.00 93 1010.7
20260509063222 20 0 3.2 6.4 0.00 0.74 0.00 93 1010.7
20260509062913 20 0 3.2 6.4 0.00 0.74 0.00 93 1010.6
20260509062814 20 354 3.2 6.4 0.00 0.74 0.00 93 1010.6
20260509062712 20 353 3.2 6.4 0.00 0.74 0.00 93 1010.5
20260509062610 20 313 3.2 6.4 0.00 0.74 0.00 93 1010.4
20260509062509 20 281 3.2 8.0 0.00 0.74 0.00 93 1010.4
20260509062406 20 279 3.2 8.0 0.00 0.74 0.00 93 1010.4
20260509062306 20 292 3.2 8.0 0.00 0.74 0.00 93 1010.4
20260509062206 20 292 3.2 8.0 0.00 0.74 0.00 93 1010.4
20260509062104 20 223 3.2 8.0 0.00 0.74 0.00 93 1010.2
20260509062008 20 203 3.2 8.0 0.00 0.74 0.00 93 1010.1
20260509062002 20 203 3.2 8.0 0.00 0.74 0.00 93 1010.1
20260509061857 20 203 3.2 8.0 0.00 0.74 0.00 93 1010.0
20260509061756 20 202 3.2 8.0 0.00 0.74 0.00 93 1009.9
20260509061655 20 195 3.2 8.0 0.00 0.74 0.00 93 1009.8
20260509061554 20 197 4.8 8.0 0.00 0.74 0.00 93 1009.8
20260509061509 20 202 4.8 8.0 0.00 0.74 0.00 93 1009.8
20260509061455 20 203 4.8 8.0 0.00 0.74 0.00 93 1009.8
20260509061355 20 216 4.8 8.0 0.00 0.74 0.00 93 1009.9
20260509061255 20 193 3.2 8.0 0.00 0.74 0.00 93 1009.8
20260509061156 20 207 4.8 8.0 0.00 0.74 0.00 93 1009.8
20260509061054 20 202 4.8 9.7 0.00 0.74 0.00 93 1009.8
20260509061007 20 206 4.8 9.7 0.00 0.74 0.00 93 1009.7
20260509060955 20 209 4.8 9.7 0.00 0.74 0.00 93 1009.7
20260509060855 20 195 4.8 9.7 0.00 0.74 0.00 93 1009.7
20260509060755 20 200 4.8 9.7 0.00 0.74 0.00 93 1009.7
20260509060655 20 206 4.8 9.7 0.00 0.74 0.00 93 1009.6
20260509060554 20 193 4.8 9.7 0.00 0.74 0.00 93 1009.5
20260509060504 20 175 4.8 9.7 0.00 0.74 0.00 93 1009.6
20260509060455 20 165 4.8 9.7 0.00 0.74 0.00 93 1009.6
20260509060356 20 183 3.2 9.7 0.00 0.74 0.00 93 1009.6
20260509060252 20 192 4.8 9.7 0.00 0.74 0.00 93 1009.6
20260509060153 20 196 4.8 9.7 0.00 0.74 0.00 93 1009.6
20260509060053 20 180 3.2 9.7 0.00 0.74 0.00 93 1009.6
20260509060005 20 169 4.8 9.7 0.00 0.74 0.00 93 1009.6
20260509055950 20 180 4.8 9.7 0.00 0.74 0.00 93 1009.6
20260509055912 20 200 3.2 8.0 0.00 0.74 0.00 93 1009.6
20260509055859 20 185 4.8 9.7 0.00 0.74 0.00 93 1009.7
20260509055829 20 179 4.8 9.7 0.00 0.74 0.00 93 1009.6
20260509055759 20 199 3.2 8.0 0.00 0.74 0.00 93 1009.6
20260509055727 20 192 3.2 8.0 0.00 0.74 0.00 93 1009.6
20260509055443 20 176 3.2 8.0 0.00 0.74 0.00 93 1009.6
20260509055340 20 162 3.2 8.0 0.00 0.74 0.00 93 1009.6
20260509055238 20 173 3.2 8.0 0.00 0.74 0.00 93 1009.5
20260509055137 20 169 3.2 6.4 0.00 0.74 0.00 93 1009.6
20260509055035 20 164 3.2 6.4 0.00 0.74 0.00 93 1009.5
20260509055003 20 164 4.8 6.4 0.00 0.74 0.00 93 1009.5
20260509054935 20 162 3.2 6.4 0.00 0.74 0.00 93 1009.5
20260509054834 20 188 3.2 6.4 0.00 0.74 0.00 93 1009.6
20260509054734 20 164 3.2 6.4 0.00 0.74 0.00 93 1009.6
20260509054634 20 175 3.2 6.4 0.00 0.74 0.00 93 1009.6
20260509054501 20 161 3.2 6.4 0.00 0.74 0.00 93 1009.7
20260509054434 20 161 3.2 6.4 0.00 0.74 0.00 93 1009.7
20260509054335 20 168 1.6 6.4 0.00 0.74 0.00 93 1009.8
20260509054235 20 168 1.6 6.4 0.00 0.74 0.00 93 1009.9
20260509054135 20 168 3.2 6.4 0.00 0.74 0.00 93 1009.8
20260509054036 20 168 3.2 6.4 0.00 0.74 0.00 93 1009.9
20260509054002 20 168 4.8 6.4 0.00 0.74 0.00 93 1009.9
20260509053935 20 168 4.8 6.4 0.00 0.74 0.00 93 1009.8
20260509053832 20 166 3.2 6.4 0.00 0.74 0.00 93 1009.8
20260509053810 20 213 3.2 6.4 0.00 0.74 0.00 92 1010.4
20260509053750 20 178 3.2 8.0 0.00 0.74 0.00 93 1009.8
20260509053722 20 172 3.2 8.0 0.00 0.74 0.00 93 1009.9
20260509053653 20 196 3.2 8.0 0.00 0.74 0.00 93 1009.9
20260509053633 20 185 3.2 8.0 0.00 0.74 0.00 93 1009.9
20260509053618 20 185 3.2 8.0 0.00 0.74 0.00 93 1009.9
20260509053340 20 165 3.2 8.0 0.00 0.74 0.00 93 1009.9
20260509053311 20 165 3.2 8.0 0.00 0.74 0.00 93 1010.0
20260509053240 20 189 3.2 8.0 0.00 0.74 0.00 93 1010.1
20260509053210 20 162 3.2 8.0 0.00 0.74 0.00 93 1010.1
20260509053151 20 155 3.2 8.0 0.00 0.74 0.00 93 1010.1
20260509053135 20 183 4.8 8.0 0.00 0.74 0.00 93 1010.3
20260509052854 20 196 4.8 8.0 0.00 0.74 0.00 92 1010.3
20260509052823 20 196 4.8 6.4 0.00 0.74 0.00 92 1010.3
20260509052752 20 202 3.2 6.4 0.00 0.74 0.00 92 1010.3
20260509052720 20 213 3.2 6.4 0.00 0.74 0.00 92 1010.4
20260509052418 20 213 4.8 6.4 0.00 0.74 0.00 92 1010.4
20260509052407 20 216 1.6 3.2 0.00 0.74 0.00 92 1010.6
20260509052343 20 213 3.2 6.4 0.00 0.74 0.00 92 1010.5
20260509052316 20 216 1.6 3.2 0.00 0.74 0.00 92 1010.5
20260509052245 20 216 1.6 3.2 0.00 0.74 0.00 92 1010.5
20260509052214 20 216 1.6 3.2 0.00 0.74 0.00 92 1010.6
20260509051911 20 216 1.6 3.2 0.00 0.74 0.00 92 1010.7
20260509051807 20 216 1.6 3.2 0.00 0.74 0.00 92 1010.7
20260509051707 20 216 1.6 3.2 0.00 0.74 0.00 92 1010.7
20260509051607 20 216 1.6 3.2 0.00 0.74 0.00 92 1010.8
20260509051510 20 216 1.6 3.2 0.00 0.74 0.00 92 1010.7
20260509051457 20 216 1.6 3.2 0.00 0.74 0.00 92 1010.7
20260509051403 20 216 3.2 3.2 0.00 0.74 0.00 92 1010.8
20260509051302 20 216 1.6 3.2 0.00 0.74 0.00 92 1010.9
20260509051203 20 216 0.0 3.2 0.00 0.74 0.00 92 1010.9
20260509051103 20 216 0.0 3.2 0.00 0.74 0.00 92 1011.0
20260509050959 20 216 0.0 3.2 0.00 0.74 0.00 92 1011.1
20260509050912 20 216 0.0 4.8 0.00 0.74 0.00 92 1011.1
20260509050903 20 216 0.0 3.2 0.00 0.74 0.00 92 1011.1
20260509050832 20 216 1.6 4.8 0.00 0.74 0.00 92 1011.1
20260509050805 20 216 1.6 4.8 0.00 0.74 0.00 92 1011.2
20260509050735 20 216 1.6 4.8 0.00 0.74 0.00 92 1011.2
20260509050455 20 216 0.0 4.8 0.00 0.74 0.00 92 1011.1
20260509050355 20 216 0.0 6.4 0.00 0.74 0.00 92 1011.1
20260509050244 20 216 0.0 6.4 0.00 0.74 0.00 92 1010.8
20260509050141 20 216 1.6 6.4 0.00 0.74 0.00 92 1010.8
20260509045937 20 216 1.6 6.4 0.00 0.74 0.74 92 1010.7
20260509045837 20 216 3.2 6.4 0.00 0.74 0.74 92 1010.7
20260509045734 20 216 3.2 6.4 0.00 0.74 0.74 92 1010.7
20260509045634 20 216 3.2 6.4 0.00 0.74 0.74 92 1010.7
20260509045534 20 216 3.2 6.4 0.00 0.74 0.74 92 1010.9
20260509045456 20 221 3.2 6.4 0.00 0.74 0.74 92 1010.9
20260509045434 20 226 3.2 6.4 0.00 0.74 0.74 92 1010.9
20260509045406 20 274 3.2 6.4 0.00 0.74 0.74 92 1011.2
20260509045348 20 250 3.2 6.4 0.00 0.74 0.74 92 1011.1
20260509045317 20 252 3.2 6.4 0.00 0.74 0.74 92 1011.1
20260509045250 20 252 3.2 6.4 0.00 0.74 0.74 92 1011.3
20260509045221 20 258 3.2 6.4 0.00 0.74 0.74 92 1011.2
20260509044936 20 300 3.2 6.4 0.00 0.74 0.74 92 1011.3
20260509044835 20 299 3.2 4.8 0.00 0.74 0.74 92 1011.3
20260509044734 20 320 1.6 4.8 0.00 0.74 0.74 92 1011.3
20260509044636 20 350 3.2 4.8 0.00 0.74 0.74 92 1011.2
20260509044520 20 355 1.6 4.8 0.00 0.74 0.74 92 1011.2
20260509044454 20 357 1.6 6.4 0.00 0.74 0.74 92 1011.2
20260509044419 20 357 1.6 6.4 0.00 0.74 0.74 92 1011.1
20260509044316 20 0 1.6 8.0 0.00 0.74 0.74 92 1011.1
20260509044211 20 0 1.6 8.0 0.00 0.74 0.74 91 1011.0
20260509044111 20 351 1.6 8.0 0.00 0.74 0.74 91 1011.0
20260509044008 20 354 3.2 8.0 0.00 0.74 0.74 92 1010.9
20260509043952 20 354 3.2 8.0 0.00 0.74 0.74 92 1010.9
20260509043907 20 354 3.2 8.0 0.00 0.74 0.74 92 1010.8
20260509043804 20 358 3.2 8.0 0.00 0.74 0.74 92 1010.7
20260509043703 20 0 4.8 8.0 0.00 0.74 0.74 92 1010.7
20260509043600 20 0 4.8 8.0 0.00 0.74 0.74 92 1010.6
20260509043452 20 0 4.8 8.0 0.00 0.74 0.74 92 1010.7
20260509043357 20 347 6.4 8.0 0.00 0.74 0.74 92 1010.7
20260509043256 20 0 4.8 8.0 0.00 0.74 0.74 91 1010.7
20260509043155 20 347 3.2 6.4 0.00 0.74 0.74 91 1010.7
20260509043054 20 32 3.2 4.8 0.00 0.74 0.74 91 1010.5
20260509042954 20 32 3.2 4.8 0.00 0.74 0.74 91 1010.5
20260509042853 20 49 3.2 4.8 0.00 0.74 0.74 91 1010.4
20260509042753 20 86 1.6 4.8 0.03 0.74 0.74 91 1010.3
20260509042652 20 86 3.2 4.8 0.03 0.74 0.74 91 1010.3
20260509042552 20 86 1.6 4.8 0.03 0.74 0.74 91 1010.4
20260509042453 20 89 1.6 4.8 0.03 0.74 0.74 91 1010.3
20260509042444 20 89 1.6 4.8 0.03 0.74 0.74 91 1010.2
20260509042353 20 89 3.2 4.8 0.03 0.74 0.74 91 1010.2
20260509042253 20 89 3.2 4.8 0.05 0.74 0.74 91 1010.2
20260509042241 20 32 1.6 4.8 0.41 0.74 0.74 91 1010.2
20260509042235 20 34 0.0 4.8 0.25 0.74 0.74 91 1010.3
20260509042212 20 55 1.6 4.8 0.05 0.74 0.74 91 1010.1
20260509042140 20 55 0.0 4.8 0.08 0.74 0.74 91 1010.1
20260509042100 20 55 0.0 4.8 0.10 0.74 0.74 91 1010.1
20260509042034 20 55 1.6 4.8 0.10 0.74 0.74 91 1010.1
20260509041959 20 55 1.6 4.8 0.13 0.74 0.74 91 1010.1
20260509041926 20 47 1.6 4.8 0.15 0.74 0.74 91 1010.1
20260509041857 20 47 1.6 4.8 0.20 0.74 0.74 91 1010.1
20260509041619 20 34 0.0 4.8 0.25 0.74 0.74 91 1010.3
20260509041341 20 32 0.0 4.8 0.30 0.74 0.74 91 1010.2
20260509041310 20 31 1.6 4.8 0.33 0.74 0.74 91 1010.3
20260509041242 20 32 1.6 4.8 0.36 0.74 0.74 91 1010.3
20260509041211 20 32 1.6 4.8 0.38 0.74 0.74 91 1010.2
20260509040932 20 32 1.6 4.8 0.41 0.74 0.74 91 1010.2
20260509040730 20 31 3.2 6.4 0.51 0.74 0.74 91 1010.1
20260509040628 20 31 3.2 6.4 0.51 0.74 0.74 91 1010.0
20260509040528 20 25 3.2 6.4 0.51 0.74 0.74 91 1010.0
20260509040426 20 32 3.2 6.4 0.51 0.74 0.74 91 1010.0
20260509040325 20 31 3.2 6.4 0.51 0.74 0.74 91 1010.0
20260509040219 20 28 3.2 6.4 0.51 0.74 0.74 91 1010.1
20260509040119 20 28 3.2 6.4 0.51 0.74 0.74 91 1010.0
20260509040017 20 27 4.8 6.4 0.51 0.23 0.74 91 1010.0
20260509035916 20 27 4.8 9.7 0.51 0.23 0.74 91 1009.9
20260509035815 20 0 3.2 9.7 0.51 0.23 0.74 91 1009.9
20260509035714 20 166 1.6 11.3 0.51 0.23 0.74 91 1009.8
20260509035609 20 166 0.0 11.3 0.51 0.23 0.74 91 1009.8
20260509035507 20 166 1.6 11.3 0.51 0.23 0.74 91 1009.8
20260509035434 20 166 1.6 11.3 0.51 0.23 0.74 91 1009.5
20260509035405 20 166 3.2 11.3 0.51 0.23 0.74 91 1009.5
20260509035306 20 148 3.2 11.3 0.51 0.23 0.74 91 1009.4
20260509035204 20 175 4.8 11.3 0.51 0.23 0.74 91 1009.3
20260509035104 20 148 6.4 11.3 0.51 0.23 0.74 91 1009.2
20260509035005 20 182 8.0 11.3 0.51 0.23 0.74 91 1009.2
20260509034934 20 176 8.0 11.3 0.51 0.23 0.74 91 1009.3
20260509034902 20 83 6.4 11.3 0.51 0.23 0.74 91 1009.3
20260509034801 20 154 4.8 11.3 0.51 0.23 0.74 91 1009.2
20260509034700 20 190 4.8 9.7 0.51 0.23 0.74 91 1009.3
20260509034558 20 169 3.2 11.3 0.51 0.23 0.74 91 1009.4
20260509034457 20 135 1.6 11.3 0.51 0.23 0.74 91 1009.4
20260509034436 20 135 1.6 11.3 0.51 0.23 0.74 91 1009.3
20260509034356 20 135 3.2 11.3 0.51 0.23 0.74 91 1009.3
20260509034254 20 131 3.2 11.3 0.51 0.23 0.74 91 1009.4
20260509034152 20 131 3.2 11.3 0.51 0.23 0.74 91 1009.5
20260509034052 20 113 3.2 14.5 0.51 0.23 0.74 91 1009.6
20260509033950 20 114 3.2 14.5 0.51 0.23 0.74 91 1009.5
20260509033932 20 113 3.2 14.5 0.51 0.23 0.74 91 1009.6
20260509033850 20 35 3.2 14.5 0.51 0.23 0.74 91 1009.6
20260509033752 20 35 6.4 14.5 0.51 0.23 0.74 91 1009.7
20260509033648 20 51 8.0 22.5 0.51 0.23 0.74 91 1009.5
20260509033547 20 28 3.2 22.5 0.51 0.23 0.74 90 1009.4
20260509033444 20 196 3.2 22.5 0.51 0.23 0.74 90 1009.5
20260509033431 20 197 3.2 22.5 0.51 0.23 0.74 90 1009.5
20260509033345 20 197 4.8 22.5 0.51 0.23 0.74 90 1009.4
20260509033337 20 125 8.0 22.5 0.51 0.23 0.74 89 1009.2
20260509033311 20 234 6.4 22.5 0.51 0.23 0.74 90 1009.3
20260509033241 20 137 8.0 22.5 0.51 0.23 0.74 90 1009.4
20260509033210 20 131 8.0 22.5 0.51 0.23 0.74 90 1009.2
20260509033142 20 125 8.0 22.5 0.51 0.23 0.74 89 1009.2
20260509032833 20 173 11.3 22.5 0.51 0.23 0.71 89 1009.3
20260509032733 20 237 11.3 22.5 0.48 0.23 0.71 89 1009.4
20260509032634 20 199 8.0 20.9 0.48 0.23 0.71 89 1009.6
20260509032532 20 231 9.7 20.9 0.48 0.23 0.71 88 1009.6
20260509032434 20 213 11.3 20.9 0.48 0.23 0.71 88 1009.5
20260509032333 20 190 11.3 20.9 0.48 0.23 0.71 88 1009.4
20260509032233 20 196 11.3 20.9 0.46 0.23 0.69 88 1009.2
20260509032133 20 135 11.3 20.9 0.46 0.23 0.69 87 1009.3
20260509032034 20 185 12.9 20.9 0.43 0.23 0.66 87 1009.3
20260509031933 20 178 11.3 20.9 0.41 0.23 0.64 86 1009.5
20260509031832 20 157 9.7 17.7 0.41 0.23 0.64 86 1009.6
20260509031733 20 159 9.7 17.7 0.38 0.23 0.61 86 1009.7
20260509031634 21 165 6.4 11.3 0.36 0.23 0.56 85 1009.8
20260509031533 21 207 8.0 11.3 0.30 0.23 0.51 84 1009.8
20260509031434 21 199 8.0 11.3 0.25 0.23 0.43 83 1009.9
20260509031334 21 202 6.4 8.0 0.20 0.23 0.41 83 1009.8
20260509031232 21 199 6.4 8.0 0.18 0.23 0.41 83 1009.9
20260509031132 21 182 6.4 6.4 0.15 0.23 0.38 83 1009.8
20260509031033 21 176 4.8 6.4 0.13 0.23 0.36 82 1010.0
20260509030928 21 158 3.2 4.8 0.10 0.23 0.30 81 1010.1
20260509030827 21 142 1.6 4.8 0.05 0.23 0.25 80 1010.3
20260509030725 21 52 0.0 3.2 0.00 0.23 0.23 80 1010.3
20260509030624 21 47 0.0 4.8 0.00 0.23 0.23 80 1010.5
20260509030519 21 47 0.0 4.8 0.00 0.23 0.23 80 1010.4
20260509030417 21 47 0.0 4.8 0.00 0.23 0.23 80 1010.5
20260509030317 21 47 0.0 4.8 0.00 0.23 0.23 80 1010.5
20260509030214 21 47 1.6 4.8 0.00 0.23 0.23 80 1010.5
20260509030112 21 47 1.6 4.8 0.00 0.23 0.23 80 1010.4
20260509030012 21 47 1.6 8.0 0.00 0.23 0.23 80 1010.4
20260509025934 21 49 1.6 8.0 0.00 0.23 0.23 80 1010.4
20260509025911 21 49 3.2 8.0 0.00 0.23 0.23 80 1010.4
20260509025808 21 49 3.2 8.0 0.00 0.23 0.23 80 1010.5
20260509025708 21 55 1.6 8.0 0.00 0.23 0.23 80 1010.5
20260509025606 21 38 0.0 8.0 0.00 0.23 0.23 80 1010.4
20260509025503 21 38 1.6 8.0 0.00 0.23 0.23 80 1010.4
20260509025432 21 38 1.6 8.0 0.00 0.23 0.23 80 1010.5
20260509025403 21 38 3.2 8.0 0.00 0.23 0.23 80 1010.5
20260509025307 21 38 3.2 8.0 0.00 0.23 0.23 80 1010.5
20260509025159 21 7 4.8 8.0 0.00 0.23 0.23 80 1010.5
20260509025057 21 17 4.8 8.0 0.00 0.23 0.23 80 1010.5
20260509024955 21 14 4.8 8.0 0.00 0.23 0.23 80 1010.5
20260509024934 21 16 3.2 8.0 0.00 0.23 0.23 80 1010.5
20260509024856 21 21 4.8 8.0 0.00 0.23 0.23 80 1010.5
20260509024753 21 23 4.8 8.0 0.00 0.23 0.23 80 1010.4
20260509024653 21 11 4.8 8.0 0.00 0.23 0.23 80 1010.5
20260509024551 21 14 4.8 6.4 0.00 0.23 0.23 80 1010.4
20260509024448 21 16 4.8 6.4 0.00 0.23 0.23 80 1010.5
20260509024431 21 14 4.8 6.4 0.00 0.23 0.23 80 1010.5
20260509024352 21 80 1.6 4.8 0.00 0.23 0.23 80 1010.0
20260509024344 21 25 3.2 4.8 0.00 0.23 0.23 80 1010.4
20260509024317 21 25 3.2 4.8 0.00 0.23 0.23 80 1010.2
20260509024246 21 56 3.2 4.8 0.00 0.23 0.23 80 1010.2
20260509024214 21 58 1.6 4.8 0.00 0.23 0.23 80 1010.1
20260509024143 21 80 1.6 4.8 0.00 0.23 0.23 80 1010.0
20260509023834 21 83 1.6 4.8 0.00 0.23 0.23 80 1010.0
20260509023734 21 83 1.6 4.8 0.00 0.23 0.23 79 1010.0
20260509023636 21 83 0.0 4.8 0.00 0.23 0.23 79 1010.0
20260509023534 21 83 1.6 4.8 0.00 0.23 0.23 79 1009.9
20260509023433 21 85 1.6 4.8 0.00 0.23 0.23 79 1009.9
20260509023333 21 79 1.6 4.8 0.00 0.23 0.23 79 1009.9
20260509023231 21 59 1.6 4.8 0.00 0.23 0.23 79 1010.0
20260509023131 21 87 0.0 3.2 0.00 0.23 0.23 79 1009.9
20260509023028 21 87 0.0 3.2 0.00 0.23 0.23 79 1009.9
20260509022932 21 87 0.0 3.2 0.00 0.23 0.23 79 1009.9
20260509022926 21 89 0.0 3.2 0.00 0.23 0.23 79 1009.9
20260509022825 21 89 0.0 3.2 0.00 0.23 0.23 79 1009.9
20260509022724 21 89 0.0 3.2 0.00 0.23 0.23 79 1009.9
20260509022621 21 89 1.6 3.2 0.00 0.23 0.23 79 1009.8
20260509022520 21 90 1.6 3.2 0.00 0.23 0.23 79 1009.8
20260509022432 21 92 1.6 3.2 0.00 0.23 0.23 79 1009.8
20260509022418 21 92 0.0 3.2 0.00 0.23 0.23 79 1009.8
20260509022339 21 96 0.0 3.2 0.00 0.23 0.23 79 1009.8
20260509022215 21 96 0.0 3.2 0.00 0.23 0.23 79 1009.7
20260509022114 21 96 0.0 3.2 0.00 0.23 0.23 79 1009.7
20260509022013 21 96 0.0 3.2 0.00 0.23 0.23 79 1009.8
20260509021913 21 96 0.0 4.8 0.00 0.23 0.23 79 1009.7
20260509021811 21 96 0.0 4.8 0.00 0.23 0.23 79 1009.6
20260509021709 21 96 1.6 4.8 0.00 0.23 0.23 79 1009.7
20260509021607 21 80 0.0 4.8 0.00 0.23 0.23 78 1009.6
20260509021507 21 83 0.0 4.8 0.00 0.23 0.23 78 1009.6
20260509021407 21 83 0.0 4.8 0.00 0.23 0.23 78 1009.5
20260509021303 21 83 0.0 4.8 0.00 0.23 0.23 78 1009.5
20260509021202 21 83 1.6 4.8 0.00 0.23 0.23 78 1009.3
20260509021059 21 102 1.6 6.4 0.00 0.23 0.23 78 1009.2
20260509020930 21 89 1.6 6.4 0.00 0.23 0.23 78 1009.3
20260509020849 21 86 3.2 6.4 0.00 0.23 0.23 78 1009.3
20260509020747 21 79 1.6 9.7 0.00 0.23 0.23 78 1009.2
20260509020644 21 89 0.0 9.7 0.00 0.23 0.23 78 1009.1
20260509020544 21 87 1.6 9.7 0.00 0.23 0.23 78 1009.0
20260509020441 21 86 3.2 9.7 0.00 0.23 0.23 78 1009.0
20260509020428 21 87 3.2 9.7 0.00 0.23 0.23 78 1009.0
20260509020341 21 90 3.2 9.7 0.00 0.23 0.23 78 1008.9
20260509020238 22 114 3.2 9.7 0.00 0.23 0.23 78 1008.8
20260509020138 21 135 3.2 9.7 0.00 0.23 0.23 78 1008.9
20260509020038 22 137 3.2 9.7 0.00 0.23 0.23 78 1008.7
20260509015937 22 128 4.8 9.7 0.00 0.23 0.23 78 1008.5
20260509015929 22 130 4.8 9.7 0.00 0.23 0.23 78 1008.5
20260509015835 22 142 4.8 9.7 0.00 0.23 0.23 78 1008.5
20260509015735 22 125 3.2 8.0 0.00 0.23 0.23 78 1008.7
20260509015634 22 120 4.8 8.0 0.00 0.23 0.23 77 1008.5
20260509015535 22 145 4.8 8.0 0.00 0.23 0.23 78 1008.5
20260509015431 22 148 4.8 8.0 0.00 0.23 0.23 77 1008.5
20260509015422 22 157 4.8 8.0 0.00 0.23 0.23 77 1008.5
20260509015332 22 134 3.2 8.0 0.00 0.23 0.23 77 1008.4
20260509015220 22 152 3.2 8.0 0.00 0.23 0.23 77 1008.5
20260509015119 22 149 3.2 8.0 0.00 0.23 0.23 77 1008.5
20260509015017 22 134 3.2 8.0 0.00 0.23 0.23 77 1008.4
20260509014915 22 134 4.8 8.0 0.00 0.23 0.23 77 1008.4
20260509014816 22 124 4.8 8.0 0.00 0.23 0.23 77 1008.5
20260509014713 22 161 3.2 6.4 0.00 0.23 0.23 77 1008.4
20260509014613 22 134 4.8 6.4 0.00 0.23 0.23 76 1008.5
20260509014510 22 131 4.8 6.4 0.00 0.23 0.23 76 1008.5
20260509014409 22 130 4.8 6.4 0.00 0.23 0.23 76 1008.4
20260509014325 22 124 1.6 6.4 0.00 0.23 0.23 76 1008.7
20260509014315 22 131 4.8 6.4 0.00 0.23 0.23 76 1008.5
20260509014246 22 123 3.2 6.4 0.00 0.23 0.23 76 1008.5
20260509014217 22 124 1.6 6.4 0.00 0.23 0.23 76 1008.7
20260509014146 22 124 1.6 6.4 0.00 0.23 0.23 76 1008.7
20260509013901 22 124 3.2 6.4 0.00 0.23 0.23 76 1008.7
20260509013801 22 125 3.2 6.4 0.00 0.23 0.23 76 1008.7
20260509013658 22 117 3.2 6.4 0.00 0.23 0.23 76 1008.7
20260509013556 22 131 3.2 6.4 0.00 0.23 0.23 76 1008.7
20260509013455 22 131 1.6 9.7 0.00 0.23 0.23 76 1008.7
20260509013415 22 131 3.2 9.7 0.00 0.23 0.23 76 1008.7
20260509013355 22 131 3.2 9.7 0.00 0.23 0.23 76 1008.7
20260509013250 22 131 3.2 9.7 0.00 0.23 0.23 76 1008.7
20260509013151 22 169 3.2 9.7 0.00 0.23 0.23 76 1008.5
20260509013049 22 171 3.2 9.7 0.00 0.23 0.23 76 1008.5
20260509012948 22 169 3.2 9.7 0.00 0.23 0.23 76 1008.5
20260509012915 22 169 4.8 9.7 0.00 0.23 0.23 76 1008.4
20260509012846 22 171 4.8 9.7 0.00 0.23 0.23 76 1008.4
20260509012746 22 157 4.8 9.7 0.00 0.23 0.23 75 1008.4
20260509012645 22 164 4.8 9.7 0.00 0.23 0.23 75 1008.4
20260509012542 22 162 4.8 9.7 0.00 0.23 0.23 75 1008.3
20260509012440 22 162 4.8 9.7 0.00 0.23 0.23 75 1008.4
20260509012415 22 159 4.8 9.7 0.00 0.23 0.23 75 1008.4
20260509012338 22 161 4.8 9.7 0.00 0.23 0.23 75 1008.4
20260509012238 22 155 4.8 14.5 0.00 0.23 0.23 75 1008.5
20260509012137 22 145 4.8 14.5 0.00 0.23 0.23 75 1008.4
20260509012033 22 176 4.8 16.1 0.00 0.23 0.23 75 1008.5
20260509011934 22 158 6.4 16.1 0.00 0.23 0.23 75 1008.5
20260509011913 22 168 6.4 16.1 0.00 0.23 0.23 75 1008.5
20260509011833 22 145 6.4 16.1 0.00 0.23 0.23 75 1008.7
20260509011732 22 165 4.8 16.1 0.00 0.23 0.23 75 1008.5
20260509011632 22 165 4.8 16.1 0.00 0.23 0.23 75 1008.5
20260509011532 22 158 6.4 16.1 0.00 0.23 0.23 75 1008.5
20260509011429 22 164 6.4 16.1 0.00 0.23 0.23 75 1008.5
20260509011415 22 161 6.4 16.1 0.00 0.23 0.23 75 1008.5
20260509011329 23 154 6.4 16.1 0.00 0.23 0.23 75 1008.5
20260509011226 23 145 8.0 16.1 0.00 0.23 0.23 75 1008.5
20260509011125 23 159 8.0 14.5 0.00 0.23 0.23 75 1008.5
20260509011022 23 76 6.4 14.5 0.00 0.23 0.23 75 1008.5
20260509010921 23 179 6.4 9.7 0.00 0.23 0.23 75 1008.5
20260509010913 23 141 6.4 8.0 0.00 0.23 0.23 75 1008.5
20260509010828 23 145 3.2 9.7 0.00 0.23 0.23 74 1008.7
20260509010821 23 149 4.8 8.0 0.00 0.23 0.23 75 1008.7
20260509010751 23 138 3.2 8.0 0.00 0.23 0.23 75 1008.7
20260509010722 23 176 3.2 8.0 0.00 0.23 0.23 74 1008.8
20260509010651 23 192 3.2 9.7 0.00 0.23 0.23 74 1008.8
20260509010621 23 145 3.2 9.7 0.00 0.23 0.23 74 1008.7
20260509010314 23 145 4.8 9.7 0.00 0.23 0.23 74 1008.8
20260509010207 23 145 4.8 9.7 0.00 0.23 0.23 74 1008.8
20260509010107 23 168 4.8 9.7 0.00 0.23 0.23 74 1008.8
20260509010006 23 164 3.2 9.7 0.00 0.23 0.23 74 1008.8
20260509005906 23 152 1.6 9.7 0.00 0.23 0.23 74 1008.7
20260509005806 23 152 4.8 9.7 0.00 0.23 0.23 73 1008.7
20260509005706 23 152 6.4 9.7 0.00 0.23 0.23 73 1008.7
20260509005605 23 130 6.4 9.7 0.00 0.23 0.23 73 1008.7
20260509005504 23 144 4.8 8.0 0.00 0.23 0.23 73 1008.7
20260509005405 23 144 4.8 8.0 0.00 0.23 0.23 73 1008.7
20260509005306 23 133 3.2 8.0 0.00 0.23 0.23 73 1008.7
20260509005203 23 164 3.2 8.0 0.00 0.23 0.23 73 1008.7
20260509005105 23 171 4.8 8.0 0.00 0.23 0.23 73 1008.7
20260509005004 23 114 4.8 8.0 0.00 0.23 0.23 73 1008.7
20260509004902 23 157 4.8 8.0 0.00 0.23 0.23 73 1008.7
20260509004802 23 127 6.4 8.0 0.00 0.23 0.23 73 1008.7
20260509004703 23 144 4.8 8.0 0.00 0.23 0.23 73 1008.5
20260509004603 23 137 3.2 8.0 0.00 0.23 0.23 73 1008.5
20260509004502 23 145 3.2 8.0 0.00 0.23 0.23 73 1008.7
20260509004411 23 120 1.6 9.7 0.00 0.23 0.23 73 1008.5
20260509004401 23 120 3.2 9.7 0.00 0.23 0.23 73 1008.5
20260509004301 23 120 3.2 11.3 0.00 0.23 0.23 73 1008.5
20260509004159 23 158 4.8 11.3 0.00 0.23 0.23 73 1008.5
20260509004054 23 118 3.2 11.3 0.00 0.23 0.23 73 1008.5
20260509003949 23 142 4.8 11.3 0.00 0.23 0.23 73 1008.3
20260509003908 23 151 4.8 14.5 0.00 0.23 0.23 73 1008.4
20260509003848 23 138 3.2 14.5 0.00 0.23 0.23 73 1008.4
20260509003748 23 190 4.8 14.5 0.00 0.23 0.23 73 1008.3
20260509003646 23 190 6.4 14.5 0.00 0.23 0.23 73 1008.4
20260509003546 23 183 6.4 14.5 0.00 0.23 0.23 73 1008.3
20260509003446 23 130 6.4 14.5 0.00 0.23 0.23 73 1008.3
20260509003404 23 176 6.4 14.5 0.00 0.23 0.23 73 1008.3
20260509003345 23 166 6.4 14.5 0.00 0.23 0.23 73 1008.3
20260509003246 23 147 4.8 14.5 0.00 0.23 0.23 73 1008.3
20260509003146 23 155 6.4 16.1 0.00 0.23 0.23 73 1008.2
20260509003045 23 144 8.0 16.1 0.00 0.23 0.23 72 1008.3
20260509002945 23 130 6.4 16.1 0.00 0.23 0.23 72 1008.2
20260509002904 23 158 4.8 16.1 0.00 0.23 0.23 72 1008.2
20260509002843 23 171 4.8 16.1 0.00 0.23 0.23 72 1008.3
20260509002741 23 173 4.8 16.1 0.00 0.23 0.23 72 1008.2
20260509002639 23 175 6.4 16.1 0.00 0.23 0.23 72 1008.2
20260509002540 23 159 8.0 16.1 0.00 0.23 0.23 72 1008.1
20260509002436 23 173 8.0 16.1 0.00 0.23 0.23 72 1008.2
20260509002406 23 168 9.7 16.1 0.00 0.23 0.23 72 1008.2
20260509002335 23 128 9.7 16.1 0.00 0.23 0.23 72 1008.1
20260509002233 23 144 9.7 16.1 0.00 0.23 0.23 72 1008.2
20260509002134 23 172 8.0 14.5 0.00 0.23 0.23 72 1008.1
20260509002032 23 127 6.4 14.5 0.00 0.23 0.23 73 1008.1
20260509001934 23 190 6.4 11.3 0.00 0.23 0.23 73 1008.1
20260509001904 23 159 6.4 11.3 0.00 0.23 0.23 73 1008.1
20260509001834 23 142 6.4 11.3 0.00 0.23 0.23 72 1008.1
20260509001633 23 154 4.8 16.1 0.00 0.23 0.23 73 1008.1
20260509001533 23 162 4.8 16.1 0.00 0.23 0.23 73 1008.1
20260509001434 23 183 6.4 16.1 0.00 0.23 0.23 73 1008.2
20260509001404 23 172 6.4 16.1 0.00 0.23 0.23 73 1008.2
20260509001333 23 195 4.8 17.7 0.00 0.23 0.23 73 1008.1
20260509001234 23 144 4.8 17.7 0.00 0.23 0.23 73 1008.1
20260509001133 23 173 6.4 20.9 0.00 0.23 0.23 73 1008.1
20260509001033 23 148 6.4 20.9 0.00 0.23 0.23 73 1008.1
20260509000933 23 172 8.0 20.9 0.00 0.23 0.23 73 1008.1
20260509000906 23 165 8.0 20.9 0.00 0.23 0.23 72 1008.1
20260509000833 23 155 8.0 20.9 0.00 0.23 0.23 72 1008.1
20260509000733 23 168 8.0 20.9 0.00 0.23 0.23 73 1008.2
20260509000634 23 173 9.7 20.9 0.00 0.23 0.23 73 1008.2
20260509000534 23 149 11.3 20.9 0.00 0.23 0.23 72 1008.2
20260509000434 23 169 11.3 20.9 0.00 0.23 0.23 72 1008.2
20260509000404 23 137 12.9 20.9 0.00 0.23 0.23 73 1008.2
20260509000333 23 164 11.3 20.9 0.00 0.23 0.23 73 1008.1
20260509000234 23 183 11.3 20.9 0.00 0.23 0.23 73 1008.1
20260509000134 23 176 9.7 19.3 0.00 0.23 0.00 73 1008.1
20260509000033 23 193 11.3 19.3 0.00 0.23 0.23 72 1008.1
20260508235933 23 202 11.3 19.3 0.00 0.23 0.23 72 1008.2
20260508235905 23 182 9.7 19.3 0.00 0.23 0.23 72 1008.2
20260508235834 23 188 9.7 19.3 0.00 0.23 0.23 72 1008.2
20260508235733 23 164 8.0 19.3 0.00 0.23 0.23 72 1008.1
20260508235633 23 165 9.7 19.3 0.00 0.23 0.23 72 1008.1
20260508235532 23 188 8.0 19.3 0.00 0.23 0.23 72 1008.2
20260508235433 24 178 9.7 20.9 0.00 0.23 0.23 72 1008.2
20260508235405 24 186 9.7 20.9 0.00 0.23 0.23 72 1008.2
20260508235333 24 157 9.7 20.9 0.00 0.23 0.23 72 1008.2
20260508235233 24 212 8.0 20.9 0.00 0.23 0.23 71 1008.2
20260508235132 24 196 8.0 20.9 0.00 0.23 0.23 71 1008.2
20260508235031 24 186 9.7 20.9 0.00 0.23 0.23 71 1008.2
20260508234932 24 185 9.7 20.9 0.00 0.23 0.23 71 1008.2
20260508234905 24 162 8.0 20.9 0.00 0.23 0.23 71 1008.2
20260508234831 24 182 9.7 20.9 0.00 0.23 0.23 70 1008.2
20260508234733 24 185 9.7 20.9 0.00 0.23 0.23 70 1008.3
20260508234630 24 199 11.3 20.9 0.00 0.23 0.23 70 1008.2
20260508234528 24 197 11.3 20.9 0.00 0.23 0.23 70 1008.3
20260508234425 24 175 9.7 17.7 0.00 0.23 0.23 70 1008.2
20260508234405 24 185 9.7 17.7 0.00 0.23 0.23 70 1008.2
20260508234324 25 185 9.7 17.7 0.00 0.23 0.23 70 1008.2
20260508234225 25 127 9.7 17.7 0.00 0.23 0.23 70 1008.2
20260508234123 25 209 8.0 17.7 0.00 0.23 0.23 70 1008.2
20260508234021 25 155 4.8 17.7 0.00 0.23 0.23 70 1008.2
20260508233919 25 171 8.0 17.7 0.00 0.23 0.23 70 1008.2
20260508233905 25 165 8.0 17.7 0.00 0.23 0.23 70 1008.2
20260508233818 25 186 9.7 17.7 0.00 0.23 0.23 70 1008.2
20260508233717 25 180 9.7 17.7 0.00 0.23 0.23 70 1008.2
20260508233614 25 140 11.3 17.7 0.00 0.23 0.23 69 1008.2
20260508233514 25 162 11.3 17.7 0.00 0.23 0.23 70 1008.3
20260508233413 25 120 9.7 17.7 0.00 0.23 0.23 70 1008.1
20260508233405 25 141 11.3 17.7 0.00 0.23 0.23 70 1008.1
20260508233311 25 121 9.7 17.7 0.00 0.23 0.23 70 1008.2
20260508233210 25 145 8.0 16.1 0.00 0.23 0.23 70 1008.3
20260508233106 25 185 6.4 16.1 0.00 0.23 0.23 70 1008.3
20260508233008 25 151 6.4 14.5 0.00 0.23 0.23 70 1008.3
20260508232905 25 164 8.0 14.5 0.00 0.23 0.23 69 1008.3
20260508232820 25 166 6.4 16.1 0.00 0.23 0.23 69 1008.4
20260508232810 25 133 9.7 14.5 0.00 0.23 0.23 70 1008.3
20260508232738 25 141 8.0 16.1 0.00 0.23 0.23 69 1008.3
20260508232707 25 157 9.7 16.1 0.00 0.23 0.23 69 1008.3
20260508232635 25 162 8.0 16.1 0.00 0.23 0.23 70 1008.3
20260508232357 25 173 6.4 16.1 0.00 0.23 0.23 69 1008.4
20260508232252 25 196 6.4 17.7 0.00 0.23 0.23 69 1008.4
20260508232150 25 189 8.0 17.7 0.00 0.23 0.23 69 1008.4
20260508232048 25 157 9.7 17.7 0.00 0.23 0.23 68 1008.4
20260508231948 25 152 8.0 17.7 0.00 0.23 0.23 69 1008.3
20260508231904 25 159 8.0 17.7 0.00 0.23 0.23 69 1008.4
20260508231846 25 134 8.0 17.7 0.00 0.23 0.23 69 1008.4
20260508231744 25 175 8.0 17.7 0.00 0.23 0.23 69 1008.4
20260508231642 25 149 6.4 17.7 0.00 0.23 0.23 69 1008.3
20260508231540 25 152 6.4 17.7 0.00 0.23 0.23 69 1008.4
20260508231440 25 154 8.0 17.7 0.00 0.23 0.23 69 1008.3
20260508231404 25 155 8.0 17.7 0.00 0.23 0.23 69 1008.3
20260508231334 25 128 6.4 17.7 0.00 0.23 0.23 69 1008.3
20260508231316 25 138 9.7 16.1 0.00 0.23 0.23 69 1008.3
20260508231251 25 166 6.4 16.1 0.00 0.23 0.23 69 1008.3
20260508231221 25 149 6.4 16.1 0.00 0.23 0.23 70 1008.3
20260508231153 25 158 8.0 16.1 0.00 0.23 0.23 69 1008.3
20260508231121 25 120 8.0 16.1 0.00 0.23 0.23 69 1008.3
20260508230825 25 182 8.0 16.1 0.00 0.23 0.23 69 1008.3
20260508230718 25 183 8.0 16.1 0.00 0.23 0.23 69 1008.3
20260508230616 25 171 6.4 11.3 0.00 0.23 0.23 70 1008.3
20260508230514 25 157 8.0 11.3 0.00 0.23 0.23 68 1008.4
20260508230413 25 172 6.4 14.5 0.00 0.23 0.23 70 1008.3
20260508230404 25 192 6.4 14.5 0.00 0.23 0.23 70 1008.3
20260508230312 25 203 6.4 14.5 0.00 0.23 0.23 70 1008.3
20260508230211 25 161 6.4 14.5 0.00 0.23 0.23 70 1008.3
20260508230109 25 186 4.8 14.5 0.00 0.23 0.23 69 1008.3
20260508230007 25 228 6.4 16.1 0.00 0.23 0.23 69 1008.3
20260508225905 25 157 8.0 16.1 0.00 0.23 0.23 68 1008.3
20260508225805 25 155 8.0 16.1 0.00 0.23 0.23 68 1008.3
20260508225706 25 147 8.0 16.1 0.00 0.23 0.23 68 1008.3
20260508225605 25 141 8.0 16.1 0.00 0.23 0.23 68 1008.4
20260508225506 25 155 8.0 16.1 0.00 0.23 0.23 69 1008.3
20260508225405 25 157 6.4 16.1 0.00 0.23 0.23 69 1008.3
20260508225306 25 185 6.4 16.1 0.00 0.23 0.23 68 1008.4
20260508225204 25 149 8.0 16.1 0.00 0.23 0.23 67 1008.4
20260508225106 25 217 9.7 16.1 0.00 0.23 0.23 67 1008.3
20260508225004 25 165 8.0 14.5 0.00 0.23 0.23 68 1008.4
20260508224907 25 124 6.4 16.1 0.00 0.23 0.23 69 1008.4
20260508224902 25 135 6.4 16.1 0.00 0.23 0.23 69 1008.4
20260508224802 25 209 8.0 16.1 0.00 0.23 0.23 67 1008.4
20260508224700 25 224 8.0 16.1 0.00 0.23 0.23 67 1008.4
20260508224559 25 197 8.0 16.1 0.00 0.23 0.23 67 1008.4
20260508224456 25 176 6.4 16.1 0.00 0.23 0.23 67 1008.3
20260508224404 25 200 6.4 16.1 0.00 0.23 0.23 68 1008.4
20260508224355 25 159 6.4 16.1 0.00 0.23 0.23 68 1008.4
20260508224315 25 209 6.4 16.1 0.00 0.23 0.23 68 1008.4
20260508224302 25 209 6.4 16.1 0.00 0.23 0.23 67 1008.3
20260508224232 25 147 6.4 16.1 0.00 0.23 0.23 70 1008.3
20260508224201 25 173 9.7 16.1 0.00 0.23 0.23 69 1008.3
20260508224132 25 209 8.0 16.1 0.00 0.23 0.23 68 1008.4
20260508223848 25 199 6.4 16.1 0.00 0.23 0.23 69 1008.4
20260508223744 25 195 8.0 14.5 0.00 0.23 0.23 68 1008.5
20260508223642 25 214 9.7 14.5 0.00 0.23 0.23 67 1008.5
20260508223543 25 188 8.0 16.1 0.00 0.23 0.23 67 1008.4
20260508223443 25 161 6.4 16.1 0.00 0.23 0.23 68 1008.5
20260508223403 25 154 6.4 16.1 0.00 0.23 0.23 68 1008.5
20260508223343 25 176 6.4 16.1 0.00 0.23 0.23 67 1008.5
20260508223242 25 192 6.4 16.1 0.00 0.23 0.23 68 1008.5
20260508223139 25 182 6.4 16.1 0.00 0.23 0.23 67 1008.5
20260508223039 25 176 6.4 16.1 0.00 0.23 0.23 67 1008.5
20260508222938 25 172 6.4 16.1 0.00 0.23 0.23 68 1008.5
20260508222904 25 219 6.4 16.1 0.00 0.23 0.23 68 1008.5
20260508222835 25 210 6.4 16.1 0.00 0.23 0.23 68 1008.5
20260508222731 25 164 6.4 16.1 0.00 0.23 0.23 67 1008.5
20260508222634 25 145 6.4 16.1 0.00 0.23 0.23 69 1008.5
20260508222532 25 145 4.8 14.5 0.00 0.23 0.23 68 1008.5
20260508222432 25 168 6.4 16.1 0.00 0.23 0.23 68 1008.5
20260508222355 25 204 4.8 16.1 0.00 0.23 0.23 69 1008.5
20260508222331 25 189 4.8 16.1 0.00 0.23 0.23 68 1008.5
20260508222307 25 214 6.4 16.1 0.00 0.23 0.23 67 1008.5
20260508222246 25 173 4.8 16.1 0.00 0.23 0.23 68 1008.5
20260508222215 25 195 4.8 16.1 0.00 0.23 0.23 68 1008.5
20260508222144 25 182 4.8 16.1 0.00 0.23 0.23 68 1008.5
20260508222115 25 200 6.4 16.1 0.00 0.23 0.23 67 1008.5
20260508221827 25 188 6.4 16.1 0.00 0.23 0.23 67 1008.5
20260508221727 25 180 4.8 16.1 0.00 0.23 0.23 67 1008.4
20260508221626 25 165 8.0 16.1 0.00 0.23 0.23 66 1008.5
20260508221522 25 158 9.7 16.1 0.00 0.23 0.23 66 1008.3
20260508221421 25 178 8.0 16.1 0.00 0.23 0.23 66 1008.3
20260508221354 25 162 8.0 16.1 0.00 0.23 0.23 67 1008.3
20260508221318 25 171 8.0 16.1 0.00 0.23 0.23 67 1008.4
20260508221218 25 162 9.7 16.1 0.00 0.23 0.23 67 1008.4
20260508221114 25 137 8.0 16.1 0.00 0.23 0.23 68 1008.4
20260508221015 25 128 4.8 16.1 0.00 0.23 0.23 67 1008.3
20260508220913 25 204 6.4 16.1 0.00 0.23 0.23 68 1008.3
20260508220851 25 195 6.4 16.1 0.00 0.23 0.23 67 1008.3
20260508220811 25 195 8.0 16.1 0.00 0.23 0.23 67 1008.4
20260508220710 25 188 8.0 16.1 0.00 0.23 0.23 67 1008.4
20260508220605 25 169 6.4 16.1 0.00 0.23 0.23 66 1008.4
20260508220502 25 196 8.0 16.1 0.00 0.23 0.23 66 1008.4
20260508220402 25 185 8.0 16.1 0.00 0.23 0.23 67 1008.4
20260508220351 25 200 8.0 16.1 0.00 0.23 0.23 66 1008.4
20260508220303 25 195 8.0 16.1 0.00 0.23 0.23 66 1008.4
20260508220203 25 166 6.4 14.5 0.00 0.23 0.23 66 1008.5
20260508220103 25 172 6.4 14.5 0.00 0.23 0.23 66 1008.5
20260508220002 25 220 8.0 14.5 0.00 0.23 0.23 65 1008.4
20260508215902 26 213 6.4 14.5 0.00 0.23 0.23 66 1008.4
20260508215852 26 169 6.4 14.5 0.00 0.23 0.23 66 1008.4
20260508215805 26 219 8.0 14.5 0.00 0.23 0.23 67 1008.4
20260508215702 26 162 6.4 14.5 0.00 0.23 0.23 66 1008.4
20260508215603 26 230 4.8 14.5 0.00 0.23 0.23 66 1008.4
20260508215502 26 210 4.8 14.5 0.00 0.23 0.23 66 1008.4
20260508215403 26 221 6.4 14.5 0.00 0.23 0.23 67 1008.4
20260508215353 26 171 6.4 14.5 0.00 0.23 0.23 67 1008.4
20260508215306 26 154 8.0 14.5 0.00 0.23 0.23 63 1008.4
20260508215148 26 195 8.0 14.5 0.00 0.23 0.23 66 1008.4
20260508215047 26 157 6.4 14.5 0.00 0.23 0.23 65 1008.4
20260508214947 26 182 6.4 14.5 0.00 0.23 0.23 66 1008.4
20260508214845 26 182 8.0 14.5 0.00 0.23 0.23 64 1008.4
20260508214742 26 171 8.0 14.5 0.00 0.23 0.23 64 1008.4
20260508214641 26 173 6.4 14.5 0.00 0.23 0.23 65 1008.3
20260508214541 26 165 6.4 14.5 0.00 0.23 0.23 64 1008.4
20260508214440 26 175 6.4 14.5 0.00 0.23 0.23 64 1008.4
20260508214346 26 155 4.8 14.5 0.00 0.23 0.23 65 1008.4
20260508214340 26 171 4.8 14.5 0.00 0.23 0.23 65 1008.4
20260508214240 26 162 4.8 14.5 0.00 0.23 0.23 64 1008.3
20260508214140 26 176 6.4 14.5 0.00 0.23 0.23 64 1008.3
20260508214041 26 141 9.7 14.5 0.00 0.23 0.23 64 1008.3
20260508213941 26 124 9.7 14.5 0.00 0.23 0.23 63 1008.3
20260508213846 26 155 8.0 14.5 0.00 0.23 0.23 63 1008.4
20260508213840 26 166 8.0 14.5 0.00 0.23 0.23 63 1008.4
20260508213740 26 128 6.4 14.5 0.00 0.23 0.23 64 1008.3
20260508213641 26 118 6.4 14.5 0.00 0.23 0.23 62 1008.3
20260508213539 26 118 8.0 16.1 0.00 0.23 0.23 63 1008.3
20260508213441 26 133 8.0 16.1 0.00 0.23 0.23 64 1008.3
20260508213344 26 137 4.8 16.1 0.00 0.23 0.23 65 1008.3
20260508213341 26 131 4.8 16.1 0.00 0.23 0.23 65 1008.3
20260508213236 26 34 3.2 16.1 0.00 0.23 0.23 64 1008.3
20260508213134 26 158 4.8 16.1 0.00 0.23 0.23 65 1008.3
20260508213032 26 120 6.4 16.1 0.00 0.23 0.23 64 1008.3
20260508212931 26 111 6.4 16.1 0.00 0.23 0.23 66 1008.4
20260508212843 26 137 8.0 16.1 0.00 0.23 0.23 67 1008.4
20260508212832 26 182 8.0 16.1 0.00 0.23 0.23 67 1008.3
20260508212731 26 157 8.0 17.7 0.00 0.23 0.23 65 1008.3
20260508212631 26 182 8.0 17.7 0.00 0.23 0.23 65 1008.3
20260508212532 26 188 9.7 17.7 0.00 0.23 0.23 64 1008.4
20260508212432 26 154 9.7 17.7 0.00 0.23 0.23 64 1008.4
20260508212342 26 121 8.0 17.7 0.00 0.23 0.23 66 1008.4
20260508212331 26 159 6.4 17.7 0.00 0.23 0.23 66 1008.3
20260508212230 26 140 8.0 19.3 0.00 0.23 0.23 65 1008.3
20260508212131 26 133 8.0 19.3 0.00 0.23 0.23 64 1008.4
20260508212032 26 135 6.4 19.3 0.00 0.23 0.23 65 1008.5
20260508211934 26 144 8.0 19.3 0.00 0.23 0.23 62 1008.5
20260508211843 26 165 9.7 20.9 0.00 0.23 0.23 62 1008.5
20260508211830 26 196 8.0 20.9 0.00 0.23 0.23 65 1008.5
20260508211730 26 158 9.7 20.9 0.00 0.23 0.23 66 1008.7
20260508211627 26 142 11.3 20.9 0.00 0.23 0.23 64 1008.8
20260508211525 26 124 9.7 20.9 0.00 0.23 0.23 65 1008.7
20260508211422 26 141 9.7 20.9 0.00 0.23 0.23 66 1008.8
20260508211345 26 152 9.7 20.9 0.00 0.23 0.23 66 1008.8
20260508211305 25 138 9.7 20.9 0.00 0.23 0.23 65 1008.8
20260508211206 25 142 9.7 20.9 0.00 0.23 0.23 64 1008.9
20260508211105 25 157 9.7 20.9 0.00 0.23 0.23 65 1008.9
20260508211004 25 152 11.3 20.9 0.00 0.23 0.23 65 1008.9
20260508210905 25 179 9.7 19.3 0.00 0.23 0.23 65 1009.0
20260508210842 25 171 9.7 19.3 0.00 0.23 0.23 65 1009.0
20260508210804 25 133 11.3 19.3 0.00 0.23 0.23 65 1009.0
20260508210702 25 185 12.9 19.3 0.00 0.23 0.23 65 1009.0
20260508210602 25 183 11.3 17.7 0.00 0.23 0.23 64 1009.0
20260508210503 25 214 9.7 22.5 0.00 0.23 0.23 65 1009.0
20260508210403 25 134 11.3 22.5 0.00 0.23 0.23 65 1009.1
20260508210342 25 130 9.7 22.5 0.00 0.23 0.23 65 1009.1
20260508210302 25 166 9.7 22.5 0.00 0.23 0.23 65 1009.1
20260508210204 26 195 9.7 22.5 0.00 0.23 0.23 65 1009.1
20260508210104 25 168 9.7 22.5 0.00 0.23 0.23 65 1009.2
20260508210001 26 154 8.0 22.5 0.00 0.23 0.23 64 1009.1
20260508205901 25 159 8.0 22.5 0.00 0.23 0.23 65 1009.2
20260508205842 25 183 9.7 22.5 0.00 0.23 0.23 65 1009.2
20260508205758 25 168 11.3 22.5 0.00 0.23 0.23 66 1009.3
20260508205657 25 210 12.9 22.5 0.00 0.23 0.23 65 1009.3
20260508205556 25 190 14.5 22.5 0.00 0.23 0.23 64 1009.4
20260508205454 25 216 14.5 22.5 0.00 0.23 0.23 64 1009.5
20260508205348 26 186 12.9 22.5 0.00 0.23 0.23 64 1009.5
20260508205339 26 172 12.9 22.5 0.00 0.23 0.23 64 1009.5
20260508205247 26 219 11.3 19.3 0.00 0.23 0.23 66 1009.5
20260508205144 26 165 9.7 19.3 0.00 0.23 0.23 66 1009.6
20260508205043 26 166 9.7 19.3 0.00 0.23 0.23 66 1009.6
20260508204941 26 169 9.7 19.3 0.00 0.23 0.23 64 1009.6
20260508204841 26 175 9.7 19.3 0.00 0.23 0.23 64 1009.7
20260508204740 26 147 9.7 19.3 0.00 0.23 0.23 63 1009.7
20260508204640 26 121 11.3 19.3 0.00 0.23 0.23 63 1009.7
20260508204539 26 161 11.3 19.3 0.00 0.23 0.23 64 1009.7
20260508204442 26 189 12.9 19.3 0.00 0.23 0.23 62 1009.7
20260508204339 26 140 11.3 19.3 0.00 0.23 0.23 64 1009.8
20260508204241 26 137 11.3 19.3 0.00 0.23 0.23 63 1009.8
20260508204140 26 169 11.3 17.7 0.00 0.23 0.23 63 1009.8
20260508204041 26 172 8.0 17.7 0.00 0.23 0.23 63 1009.8
20260508203940 26 121 8.0 17.7 0.00 0.23 0.23 64 1009.8
20260508203840 26 144 9.7 17.7 0.00 0.23 0.23 62 1009.8
20260508203741 26 130 11.3 17.7 0.00 0.23 0.23 62 1009.9
20260508203640 26 179 11.3 16.1 0.00 0.23 0.23 62 1009.9
20260508203540 26 138 9.7 16.1 0.00 0.23 0.23 62 1009.9
20260508203442 26 120 8.0 16.1 0.00 0.23 0.23 61 1009.8
20260508203343 26 221 8.0 19.3 0.00 0.23 0.23 61 1009.9
20260508203339 26 221 8.0 19.3 0.00 0.23 0.23 61 1009.8
20260508203237 26 190 8.0 19.3 0.00 0.23 0.23 63 1009.8
20260508203136 26 192 6.4 19.3 0.00 0.23 0.23 64 1009.9
20260508203034 26 212 4.8 19.3 0.00 0.23 0.23 64 1009.9
20260508202932 26 186 6.4 19.3 0.00 0.23 0.23 61 1010.0
20260508202839 26 189 8.0 19.3 0.00 0.23 0.23 62 1010.0
20260508202833 26 188 8.0 19.3 0.00 0.23 0.23 62 1009.9
20260508202733 26 176 8.0 19.3 0.00 0.23 0.23 62 1010.0
20260508202634 26 173 8.0 19.3 0.00 0.23 0.23 62 1010.0
20260508202533 26 189 12.9 19.3 0.00 0.23 0.23 63 1010.0
20260508202433 26 166 11.3 19.3 0.00 0.23 0.23 61 1009.9
20260508202340 26 165 11.3 19.3 0.00 0.23 0.23 65 1009.9
20260508202334 26 175 9.7 19.3 0.00 0.23 0.23 65 1009.9
20260508202233 26 179 11.3 19.3 0.00 0.23 0.23 62 1009.9
20260508202132 26 234 9.7 19.3 0.00 0.23 0.23 63 1009.9
20260508202033 26 192 9.7 19.3 0.00 0.23 0.23 61 1009.9
20260508201934 26 217 8.0 19.3 0.00 0.23 0.23 61 1009.9
20260508201839 26 185 9.7 19.3 0.00 0.23 0.23 62 1009.9
20260508201832 26 216 9.7 19.3 0.00 0.23 0.23 62 1010.0
20260508201734 26 189 11.3 19.3 0.00 0.23 0.23 61 1010.0
20260508201634 26 212 12.9 19.3 0.00 0.23 0.23 61 1010.0
20260508201535 26 221 9.7 19.3 0.00 0.23 0.23 62 1010.0
20260508201434 26 227 6.4 16.1 0.00 0.23 0.23 64 1010.0
20260508201340 26 202 6.4 11.3 0.00 0.23 0.23 64 1010.0
20260508201332 25 223 6.4 11.3 0.00 0.23 0.23 64 1010.0
20260508201234 25 206 8.0 11.3 0.00 0.23 0.23 62 1010.1
20260508201147 25 135 9.7 16.1 0.00 0.23 0.23 61 1010.4
20260508201138 25 206 8.0 14.5 0.00 0.23 0.23 61 1010.1
20260508201106 25 204 8.0 14.5 0.00 0.23 0.23 61 1010.1
20260508201036 25 195 8.0 14.5 0.00 0.23 0.23 62 1010.2
20260508201007 25 145 6.4 14.5 0.00 0.23 0.23 63 1010.2
20260508201001 25 142 6.4 14.5 0.00 0.23 0.23 64 1010.2
20260508200933 25 149 4.8 14.5 0.00 0.23 0.23 63 1010.2
20260508200653 25 183 6.4 16.1 0.00 0.23 0.23 61 1010.3
20260508200624 25 138 6.4 16.1 0.00 0.23 0.23 62 1010.3
20260508200553 25 151 4.8 16.1 0.00 0.23 0.23 61 1010.3
20260508200525 25 133 6.4 16.1 0.00 0.23 0.23 61 1010.3
20260508200518 25 134 6.4 16.1 0.00 0.23 0.23 61 1010.4
20260508200239 25 202 9.7 16.1 0.00 0.23 0.23 60 1010.4
20260508200210 25 199 8.0 16.1 0.00 0.23 0.23 61 1010.4
20260508200144 25 144 8.0 16.1 0.00 0.23 0.23 60 1010.4
20260508200114 25 137 8.0 16.1 0.00 0.23 0.23 62 1010.4
20260508195833 25 164 9.7 16.1 0.00 0.23 0.23 61 1010.4
20260508195733 25 123 8.0 16.1 0.00 0.23 0.23 62 1010.4
20260508195633 25 120 6.4 16.1 0.00 0.23 0.23 61 1010.3
20260508195533 25 125 8.0 16.1 0.00 0.23 0.23 61 1010.3
20260508195434 25 135 8.0 16.1 0.00 0.23 0.23 62 1010.4
20260508195338 25 151 8.0 16.1 0.00 0.23 0.23 62 1010.4
20260508195333 25 155 8.0 16.1 0.00 0.23 0.23 62 1010.4
20260508195233 25 130 9.7 16.1 0.00 0.23 0.23 61 1010.4
20260508195133 25 169 9.7 16.1 0.00 0.23 0.23 60 1010.5
20260508195032 26 228 6.4 11.3 0.00 0.23 0.23 61 1010.5
20260508194932 26 188 6.4 11.3 0.00 0.23 0.23 63 1010.4
20260508194839 25 133 6.4 11.3 0.00 0.23 0.23 62 1010.4
20260508194834 25 142 6.4 11.3 0.00 0.23 0.23 62 1010.5
20260508194741 25 180 6.4 11.3 0.00 0.23 0.23 61 1010.5
20260508194733 25 141 6.4 11.3 0.00 0.23 0.23 60 1010.5
20260508194704 25 159 8.0 11.3 0.00 0.23 0.23 60 1010.5
20260508194635 25 182 8.0 11.3 0.00 0.23 0.23 60 1010.5
20260508194607 26 152 6.4 11.3 0.00 0.23 0.23 61 1010.5
20260508194333 25 180 6.4 11.3 0.00 0.23 0.23 61 1010.5
20260508194234 25 214 4.8 11.3 0.00 0.23 0.23 61 1010.5
20260508194132 25 159 6.4 11.3 0.00 0.23 0.23 62 1010.6
20260508194034 25 137 6.4 11.3 0.00 0.23 0.23 61 1010.6
20260508193931 25 138 6.4 11.3 0.00 0.23 0.23 63 1010.6
20260508193840 25 162 4.8 14.5 0.00 0.23 0.23 63 1010.6
20260508193833 25 127 4.8 14.5 0.00 0.23 0.23 63 1010.5
20260508193732 25 144 3.2 16.1 0.00 0.23 0.23 63 1010.6
20260508193634 25 182 4.8 16.1 0.00 0.23 0.23 62 1010.5
20260508193535 25 213 4.8 16.1 0.00 0.23 0.23 61 1010.6
20260508193432 25 197 6.4 16.1 0.00 0.23 0.23 60 1010.6
20260508193338 25 186 6.4 16.1 0.00 0.23 0.23 62 1010.6
20260508193333 25 195 6.4 16.1 0.00 0.23 0.23 60 1010.6
20260508193233 25 165 6.4 16.1 0.00 0.23 0.23 63 1010.5
20260508193134 25 180 8.0 16.1 0.00 0.23 0.23 62 1010.5
20260508193034 25 202 9.7 16.1 0.00 0.23 0.23 60 1010.5
20260508192932 25 210 9.7 16.1 0.00 0.23 0.23 61 1010.5
20260508192833 25 188 9.7 16.1 0.00 0.23 0.23 60 1010.5
20260508192734 26 178 6.4 11.3 0.00 0.23 0.23 62 1010.5
20260508192634 25 120 3.2 11.3 0.00 0.23 0.23 60 1010.5
20260508192533 25 154 1.6 11.3 0.00 0.23 0.23 60 1010.5
20260508192433 25 154 3.2 14.5 0.00 0.23 0.23 60 1010.6
20260508192334 26 152 6.4 14.5 0.00 0.23 0.23 59 1010.6
20260508192232 26 140 8.0 17.7 0.00 0.23 0.23 60 1010.6
20260508192134 26 147 9.7 17.7 0.00 0.23 0.23 61 1010.6
20260508192034 25 144 6.4 17.7 0.00 0.23 0.23 61 1010.5
20260508191933 25 144 6.4 17.7 0.00 0.23 0.23 61 1010.6
20260508191833 25 144 6.4 17.7 0.00 0.23 0.23 61 1010.6
20260508191716 25 131 6.4 17.7 0.00 0.23 0.23 59 1010.6
20260508191615 25 137 6.4 17.7 0.00 0.23 0.23 61 1010.6
20260508191513 25 185 9.7 17.7 0.00 0.23 0.23 61 1010.6
20260508191409 25 134 9.7 17.7 0.00 0.23 0.23 61 1010.7
20260508191336 25 147 9.7 17.7 0.00 0.23 0.23 61 1010.7
20260508191307 25 185 8.0 14.5 0.00 0.23 0.23 62 1010.6
20260508191207 25 192 8.0 14.5 0.00 0.23 0.23 61 1010.6
20260508191059 25 223 6.4 14.5 0.00 0.23 0.23 61 1010.6
20260508190957 25 188 4.8 14.5 0.00 0.23 0.23 63 1010.6
20260508190856 25 173 8.0 14.5 0.00 0.23 0.23 61 1010.7
20260508190836 25 158 8.0 14.5 0.00 0.23 0.23 61 1010.7
20260508190753 25 193 6.4 14.5 0.00 0.23 0.23 62 1010.7
20260508190650 25 203 6.4 14.5 0.00 0.23 0.23 63 1010.7
20260508190549 25 128 9.7 14.5 0.00 0.23 0.23 61 1010.7
20260508190448 25 158 9.7 16.1 0.00 0.23 0.23 60 1010.7
20260508190346 25 168 8.0 16.1 0.00 0.23 0.23 62 1010.7
20260508190337 25 223 8.0 16.1 0.00 0.23 0.23 62 1010.7
20260508190244 25 142 8.0 16.1 0.00 0.23 0.23 62 1010.8
20260508190144 25 120 6.4 16.1 0.00 0.23 0.23 65 1010.7
20260508190042 25 175 6.4 16.1 0.00 0.23 0.23 61 1010.7
20260508185940 25 151 6.4 16.1 0.00 0.23 0.23 61 1010.7
20260508185839 25 189 6.4 16.1 0.00 0.23 0.23 61 1010.8
20260508185738 25 127 6.4 16.1 0.00 0.23 0.23 63 1010.8
20260508185635 25 220 8.0 16.1 0.00 0.23 0.23 63 1010.8
20260508185536 25 192 4.8 16.1 0.00 0.23 0.23 62 1010.8
20260508185433 25 159 3.2 14.5 0.00 0.23 0.23 60 1010.8
20260508185339 25 161 4.8 14.5 0.00 0.23 0.23 60 1010.8
20260508185334 25 161 4.8 14.5 0.00 0.23 0.23 60 1010.9
20260508185233 25 152 6.4 14.5 0.00 0.23 0.23 61 1010.9
20260508185133 25 213 6.4 14.5 0.00 0.23 0.23 61 1010.8
20260508185034 25 157 8.0 14.5 0.00 0.23 0.23 61 1010.9
20260508184933 25 127 6.4 14.5 0.00 0.23 0.23 65 1010.8
20260508184839 25 127 6.4 11.3 0.00 0.23 0.23 62 1010.8
20260508184833 25 133 6.4 11.3 0.00 0.23 0.23 62 1010.9
20260508184731 25 162 8.0 11.3 0.00 0.23 0.23 64 1010.9
20260508184628 25 140 6.4 11.3 0.00 0.23 0.23 64 1010.9
20260508184528 25 152 6.4 11.3 0.00 0.23 0.23 63 1010.9
20260508184424 25 107 6.4 11.3 0.00 0.23 0.23 63 1010.9
20260508184337 25 140 6.4 11.3 0.00 0.23 0.23 64 1010.9
20260508184323 25 162 6.4 11.3 0.00 0.23 0.23 64 1010.9
20260508184222 25 113 4.8 11.3 0.00 0.23 0.23 65 1010.9
20260508184120 24 138 6.4 11.3 0.00 0.23 0.23 66 1011.0
20260508184016 24 140 6.4 11.3 0.00 0.23 0.23 66 1011.0
20260508183917 24 142 4.8 11.3 0.00 0.23 0.23 63 1011.0
20260508183836 24 200 6.4 11.3 0.00 0.23 0.23 64 1011.0
20260508183816 24 254 6.4 11.3 0.00 0.23 0.23 64 1011.0
20260508183714 24 228 6.4 11.3 0.00 0.23 0.23 62 1011.1
20260508183613 24 207 6.4 11.3 0.00 0.23 0.23 62 1011.1
20260508183508 24 176 6.4 11.3 0.00 0.23 0.23 64 1011.1
20260508183406 24 221 4.8 11.3 0.00 0.23 0.23 63 1011.2
20260508183337 24 224 4.8 11.3 0.00 0.23 0.23 61 1011.2
20260508183307 24 123 6.4 11.3 0.00 0.23 0.23 61 1011.2
20260508183206 24 124 8.0 11.3 0.00 0.23 0.23 63 1011.2
20260508183105 24 140 6.4 14.5 0.00 0.23 0.23 66 1011.2
20260508183004 24 179 4.8 14.5 0.00 0.23 0.23 67 1011.2
20260508182902 24 231 6.4 14.5 0.00 0.23 0.23 64 1011.3
20260508182835 24 221 6.4 14.5 0.00 0.23 0.23 64 1011.3
20260508182801 24 202 6.4 14.5 0.00 0.23 0.23 64 1011.2
20260508182700 24 213 4.8 14.5 0.00 0.23 0.23 65 1011.3
20260508182557 24 213 6.4 14.5 0.00 0.23 0.23 61 1011.3
20260508182455 24 221 8.0 14.5 0.00 0.23 0.23 64 1011.3
20260508182354 24 210 8.0 14.5 0.00 0.23 0.23 62 1011.3
20260508182335 24 212 9.7 14.5 0.00 0.23 0.23 62 1011.3
20260508182252 24 216 8.0 14.5 0.00 0.23 0.23 62 1011.4
20260508182233 25 128 6.4 11.3 0.00 0.23 0.23 63 1011.4
20260508182212 25 185 3.2 9.7 0.00 0.23 0.23 63 1011.3
20260508182144 25 196 3.2 9.7 0.00 0.23 0.23 62 1011.4
20260508182118 25 94 6.4 11.3 0.00 0.23 0.23 61 1011.4
20260508182046 25 94 6.4 11.3 0.00 0.23 0.23 63 1011.4
20260508181736 25 161 3.2 11.3 0.00 0.23 0.23 65 1011.4
20260508181634 24 149 3.2 11.3 0.00 0.23 0.23 67 1011.4
20260508181534 24 48 3.2 11.3 0.00 0.23 0.23 67 1011.5
20260508181433 24 133 3.2 11.3 0.00 0.23 0.23 68 1011.5
20260508181339 24 141 3.2 11.3 0.00 0.23 0.23 66 1011.5
20260508181334 24 133 3.2 11.3 0.00 0.23 0.23 66 1011.5
20260508181233 24 185 6.4 11.3 0.00 0.23 0.23 63 1011.6
20260508181134 24 140 8.0 11.3 0.00 0.23 0.23 64 1011.6
20260508181032 24 149 6.4 11.3 0.00 0.23 0.23 63 1011.6
20260508180933 24 176 4.8 11.3 0.00 0.23 0.23 64 1011.6
20260508180834 24 220 6.4 11.3 0.00 0.23 0.23 67 1011.6
20260508180824 24 165 6.4 11.3 0.00 0.23 0.23 67 1011.7
20260508180747 24 110 3.2 16.1 0.00 0.23 0.23 65 1011.8
20260508180733 24 130 6.4 11.3 0.00 0.23 0.23 66 1011.6
20260508180701 24 124 4.8 11.3 0.00 0.23 0.23 64 1011.6
20260508180633 24 176 3.2 16.1 0.00 0.23 0.23 66 1011.8
20260508180602 24 87 3.2 16.1 0.00 0.23 0.23 63 1011.8
20260508180317 24 111 4.8 16.1 0.00 0.23 0.23 65 1011.7
20260508180213 24 102 4.8 16.1 0.00 0.23 0.23 66 1011.8
20260508180112 24 83 3.2 16.1 0.00 0.23 0.23 63 1011.8
20260508180012 24 118 4.8 16.1 0.00 0.23 0.23 64 1011.8
20260508175911 24 130 4.8 16.1 0.00 0.23 0.23 64 1011.9
20260508175835 24 154 6.4 16.1 0.00 0.23 0.23 64 1011.9
20260508175809 24 138 6.4 16.1 0.00 0.23 0.23 64 1011.8
20260508175707 24 162 8.0 16.1 0.00 0.23 0.23 66 1011.8
20260508175605 24 131 6.4 16.1 0.00 0.23 0.23 65 1011.8
20260508175507 24 172 4.8 11.3 0.00 0.23 0.23 65 1011.8
20260508175407 23 124 4.8 11.3 0.00 0.23 0.23 66 1011.8
20260508175331 23 123 4.8 11.3 0.00 0.23 0.23 67 1011.9
20260508175306 23 92 3.2 11.3 0.00 0.23 0.23 67 1011.9
20260508175204 23 110 3.2 11.3 0.00 0.23 0.23 66 1011.8
20260508175105 23 227 3.2 11.3 0.00 0.23 0.23 65 1011.9
20260508175007 23 144 4.8 11.3 0.00 0.23 0.23 66 1011.9
20260508174906 23 114 4.8 11.3 0.00 0.23 0.23 68 1011.9
20260508174832 23 137 3.2 11.3 0.00 0.23 0.23 68 1011.9
20260508174806 23 138 3.2 11.3 0.00 0.23 0.23 68 1011.9
20260508174707 23 178 4.8 11.3 0.00 0.23 0.23 65 1011.9
20260508174558 23 145 6.4 14.5 0.00 0.23 0.23 66 1011.9
20260508174457 23 183 6.4 14.5 0.00 0.23 0.23 65 1011.9
20260508174356 23 71 6.4 14.5 0.00 0.23 0.23 65 1011.9
20260508174330 23 113 6.4 14.5 0.00 0.23 0.23 65 1011.9
20260508174254 23 142 4.8 14.5 0.00 0.23 0.23 66 1011.9
20260508174153 23 141 4.8 14.5 0.00 0.23 0.23 65 1011.9
20260508174051 23 131 3.2 14.5 0.00 0.23 0.23 66 1011.9
20260508173950 23 151 4.8 14.5 0.00 0.23 0.23 65 1012.0
20260508173848 23 116 6.4 14.5 0.00 0.23 0.23 68 1012.0
20260508173830 23 107 6.4 14.5 0.00 0.23 0.23 68 1012.0
20260508173747 23 137 6.4 14.5 0.00 0.23 0.23 67 1012.0
20260508173645 23 135 4.8 11.3 0.00 0.23 0.23 67 1012.0
20260508173544 23 123 4.8 11.3 0.00 0.23 0.23 67 1012.0
20260508173437 23 124 6.4 11.3 0.00 0.23 0.23 67 1012.1
20260508173339 23 125 6.4 11.3 0.00 0.23 0.23 67 1012.0
20260508173330 23 100 6.4 11.3 0.00 0.23 0.23 67 1012.0
20260508173232 23 145 6.4 11.3 0.00 0.23 0.23 67 1012.1
20260508173133 23 116 6.4 11.3 0.00 0.23 0.23 66 1012.1
20260508173034 23 117 6.4 11.3 0.00 0.23 0.23 67 1012.2
20260508172930 23 131 8.0 11.3 0.00 0.23 0.23 67 1012.3
20260508172835 22 69 6.4 11.3 0.00 0.23 0.23 67 1012.2
20260508172828 22 134 6.4 11.3 0.00 0.23 0.23 67 1012.2
20260508172732 22 128 6.4 11.3 0.00 0.23 0.23 67 1012.3
20260508172630 22 144 4.8 11.3 0.00 0.23 0.23 68 1012.3
20260508172532 22 100 3.2 14.5 0.00 0.23 0.23 66 1012.4
20260508172425 22 49 3.2 14.5 0.00 0.23 0.23 65 1012.5
20260508172330 22 44 4.8 14.5 0.00 0.23 0.23 65 1012.5
20260508172323 22 54 6.4 14.5 0.00 0.23 0.23 65 1012.5
20260508172223 22 27 6.4 14.5 0.00 0.23 0.23 67 1012.5
20260508172122 22 141 3.2 14.5 0.00 0.23 0.23 69 1012.6
20260508172020 22 195 3.2 16.1 0.00 0.23 0.23 69 1012.6
20260508171918 22 200 4.8 16.1 0.00 0.23 0.23 68 1012.7
20260508171827 22 197 8.0 16.1 0.00 0.23 0.23 69 1012.7
20260508171815 22 178 8.0 16.1 0.00 0.23 0.23 69 1012.7
20260508171716 22 140 9.7 16.1 0.00 0.23 0.23 69 1012.7
20260508171617 22 142 9.7 16.1 0.00 0.23 0.23 69 1012.7
20260508171610 20 183 6.4 11.3 0.00 0.23 0.23 77 1013.7
20260508171601 19 168 3.2 9.7 0.00 0.23 0.23 81 1013.8
20260508171556 19 192 4.8 9.7 0.00 0.23 0.23 82 1013.8
20260508171550 19 135 3.2 9.7 0.00 0.23 0.23 82 1013.9
20260508171544 18 138 6.4 9.7 0.00 0.23 0.23 81 1013.8
20260508171526 22 165 8.0 16.1 0.00 0.23 0.23 67 1012.8
20260508171454 22 161 6.4 16.1 0.00 0.23 0.23 72 1012.8
20260508171427 22 172 8.0 16.1 0.00 0.23 0.23 71 1012.9
20260508171421 22 175 8.0 16.1 0.00 0.23 0.23 71 1012.9
20260508171351 22 183 8.0 16.1 0.00 0.23 0.23 69 1012.8
20260508171320 22 125 4.8 11.3 0.00 0.23 0.23 69 1012.8
20260508171248 22 207 6.4 11.3 0.00 0.23 0.23 68 1012.9
20260508171217 22 219 6.4 11.3 0.00 0.23 0.23 70 1012.9
20260508171151 22 203 4.8 11.3 0.00 0.23 0.23 70 1012.9
20260508171141 22 212 4.8 11.3 0.00 0.23 0.23 70 1012.9
20260508171109 21 127 3.2 11.3 0.00 0.23 0.23 71 1013.0
20260508171043 21 116 3.2 11.3 0.00 0.23 0.23 71 1013.0
20260508171014 21 141 4.8 11.3 0.00 0.23 0.23 71 1013.0
20260508170945 21 134 6.4 11.3 0.00 0.23 0.23 70 1013.0
20260508170924 21 135 8.0 11.3 0.00 0.23 0.23 70 1013.0
20260508170913 21 138 8.0 11.3 0.00 0.23 0.23 71 1013.0
20260508170844 21 127 4.8 11.3 0.00 0.23 0.23 71 1013.0
20260508170813 21 147 3.2 9.7 0.00 0.23 0.23 73 1013.0
20260508170743 21 193 4.8 9.7 0.00 0.23 0.23 71 1013.0
20260508170714 21 196 6.4 9.7 0.00 0.23 0.23 71 1013.0
20260508170649 21 231 4.8 9.7 0.00 0.23 0.23 72 1013.0
20260508170639 21 230 4.8 9.7 0.00 0.23 0.23 72 1013.0
20260508170610 21 175 3.2 9.7 0.00 0.23 0.23 73 1013.1
20260508170541 21 149 4.8 9.7 0.00 0.23 0.23 72 1013.1
20260508170511 21 138 6.4 9.7 0.00 0.23 0.23 72 1013.0
20260508170445 21 155 4.8 11.3 0.00 0.23 0.23 72 1013.1
20260508170422 21 192 4.8 11.3 0.00 0.23 0.23 72 1013.0
20260508170410 21 203 4.8 11.3 0.00 0.23 0.23 72 1013.0
20260508170344 21 134 3.2 11.3 0.00 0.23 0.23 73 1013.1
20260508170313 21 197 4.8 11.3 0.00 0.23 0.23 72 1013.0
20260508170243 21 189 6.4 11.3 0.00 0.23 0.23 72 1013.1
20260508170214 21 157 6.4 11.3 0.00 0.23 0.23 72 1013.1
20260508170150 21 130 6.4 14.5 0.00 0.23 0.23 74 1013.3
20260508170141 21 133 6.4 14.5 0.00 0.23 0.23 74 1013.3
20260508170113 21 166 6.4 14.5 0.00 0.23 0.23 73 1013.3
20260508170041 21 199 8.0 14.5 0.00 0.23 0.23 73 1013.4
20260508170011 21 144 8.0 14.5 0.00 0.23 0.23 74 1013.4
20260508165939 21 130 6.4 14.5 0.00 0.23 0.23 75 1013.4
20260508165917 21 179 6.4 14.5 0.00 0.23 0.23 75 1013.5
20260508165904 20 142 6.4 14.5 0.00 0.23 0.23 75 1013.5
20260508165835 20 157 6.4 14.5 0.00 0.23 0.23 74 1013.4
20260508165805 20 175 8.0 14.5 0.00 0.23 0.23 73 1013.6
20260508165732 20 125 9.7 14.5 0.00 0.23 0.23 74 1013.5
20260508165703 20 128 9.7 14.5 0.00 0.23 0.23 74 1013.5
20260508165642 20 148 9.7 14.5 0.00 0.23 0.23 74 1013.6
20260508165627 20 125 8.0 14.5 0.00 0.23 0.23 74 1013.6
20260508165558 20 128 4.8 14.5 0.00 0.23 0.23 76 1013.6
20260508165526 20 189 6.4 14.5 0.00 0.23 0.23 74 1013.6
20260508165454 20 185 6.4 14.5 0.00 0.23 0.23 74 1013.6
20260508165425 20 186 6.4 11.3 0.00 0.23 0.23 75 1013.7
20260508165408 20 193 4.8 11.3 0.00 0.23 0.23 74 1013.6
20260508165348 20 176 6.4 11.3 0.00 0.23 0.23 74 1013.6
20260508165314 20 138 6.4 11.3 0.00 0.23 0.23 75 1013.6
20260508165245 20 159 8.0 11.3 0.00 0.23 0.23 74 1013.6
20260508165214 20 216 8.0 11.3 0.00 0.23 0.23 75 1013.6
20260508165144 20 144 6.4 11.3 0.00 0.23 0.23 74 1013.7
20260508165129 20 183 6.4 11.3 0.00 0.23 0.23 75 1013.6
20260508165110 20 176 6.4 11.3 0.00 0.23 0.23 75 1013.6
20260508165038 20 127 6.4 11.3 0.00 0.23 0.23 76 1013.7
20260508165008 20 142 8.0 11.3 0.00 0.23 0.23 78 1013.7
20260508164937 20 134 6.4 11.3 0.00 0.23 0.23 78 1013.7
20260508164909 20 133 6.4 11.3 0.00 0.23 0.23 77 1013.7
20260508164629 20 189 8.0 11.3 0.00 0.23 0.23 77 1013.7
20260508164559 20 210 6.4 9.7 0.00 0.23 0.23 79 1013.7
20260508164531 20 178 4.8 9.7 0.00 0.23 0.23 80 1013.7
20260508164501 20 185 4.8 9.7 0.00 0.23 0.23 79 1013.7
20260508164415 20 141 6.4 9.7 0.00 0.23 0.23 79 1013.8
20260508164357 20 161 4.8 9.7 0.00 0.23 0.23 81 1013.7
20260508164327 20 137 4.8 9.7 0.00 0.23 0.23 80 1013.7
20260508164256 20 154 6.4 9.7 0.00 0.23 0.23 80 1013.7
20260508164226 19 169 4.8 9.7 0.00 0.23 0.23 79 1013.8
20260508164154 19 157 4.8 9.7 0.00 0.23 0.23 81 1013.8
20260508163915 19 162 4.8 9.7 0.00 0.23 0.23 81 1013.8
20260508163844 19 162 4.8 9.7 0.00 0.23 0.23 81 1013.8
20260508163814 19 207 4.8 9.7 0.00 0.23 0.23 80 1013.8
20260508163742 19 157 6.4 9.7 0.00 0.23 0.23 80 1013.8
20260508163706 19 180 4.8 9.7 0.00 0.23 0.23 81 1013.8
20260508163634 19 165 4.8 9.7 0.00 0.23 0.23 81 1013.8
20260508163602 19 216 4.8 9.7 0.00 0.23 0.23 81 1013.8
20260508163533 19 145 4.8 9.7 0.00 0.23 0.23 82 1013.9
20260508163503 19 144 6.4 9.7 0.00 0.23 0.23 82 1013.7
20260508163437 19 148 6.4 9.7 0.00 0.23 0.23 82 1013.7
20260508163429 19 154 6.4 9.7 0.00 0.23 0.23 82 1013.7
20260508163358 19 148 6.4 9.7 0.00 0.23 0.23 82 1013.8
20260508161733 19 192 4.8 9.7 0.00 0.23 0.23 82 1013.8
20260508160105 19 135 3.2 9.7 0.00 0.23 0.23 82 1013.9
20260508160034 18 144 6.4 9.7 0.00 0.23 0.23 82 1013.8
20260508155749 18 140 6.4 9.7 0.00 0.23 0.23 81 1013.8
20260508155647 18 130 4.8 9.7 0.00 0.23 0.23 81 1013.8
20260508155547 18 151 3.2 9.7 0.00 0.23 0.23 81 1013.8
20260508155445 18 189 3.2 9.7 0.00 0.23 0.23 80 1013.9
20260508155343 18 189 4.8 9.7 0.00 0.23 0.23 79 1013.9
20260508155306 18 199 4.8 9.7 0.00 0.23 0.23 79 1014.0
20260508155242 18 165 6.4 9.7 0.00 0.23 0.23 79 1014.0
20260508155140 18 189 6.4 9.7 0.00 0.23 0.23 80 1013.9
20260508155039 18 169 6.4 9.7 0.00 0.23 0.23 80 1013.9
20260508154937 18 128 6.4 9.7 0.00 0.23 0.23 80 1013.8
20260508154836 18 172 6.4 9.7 0.00 0.23 0.23 80 1013.9
20260508154806 18 178 6.4 9.7 0.00 0.23 0.23 80 1013.9
20260508154734 18 134 6.4 9.7 0.00 0.23 0.23 80 1013.9
20260508154633 18 192 6.4 9.7 0.00 0.23 0.23 80 1013.9
20260508154603 18 204 3.2 6.4 0.00 0.23 0.23 80 1014.2
20260508154556 18 155 4.8 8.0 0.00 0.23 0.23 81 1013.9
20260508154543 18 161 4.8 9.7 0.00 0.23 0.23 80 1013.9
20260508154510 18 188 6.4 9.7 0.00 0.23 0.23 80 1013.9
20260508154440 18 155 6.4 9.7 0.00 0.23 0.23 80 1013.9
20260508154422 18 152 6.4 9.7 0.00 0.23 0.23 81 1014.0
20260508154407 18 175 4.8 8.0 0.00 0.23 0.23 81 1014.0
20260508154335 18 172 4.8 8.0 0.00 0.23 0.23 81 1014.0
20260508154302 18 179 6.4 8.0 0.00 0.23 0.23 81 1013.9
20260508154233 18 183 4.8 8.0 0.00 0.23 0.23 81 1014.0
20260508154202 18 155 4.8 8.0 0.00 0.23 0.23 81 1013.9
20260508153715 18 176 4.8 8.0 0.00 0.23 0.23 80 1014.0
20260508153645 18 180 4.8 8.0 0.00 0.23 0.23 80 1014.0
20260508153614 18 166 4.8 8.0 0.00 0.23 0.23 81 1014.0
20260508153544 18 182 3.2 6.4 0.00 0.23 0.23 81 1014.0
20260508153514 18 204 3.2 6.4 0.00 0.23 0.23 80 1014.2
20260508153213 18 183 3.2 8.0 0.00 0.23 0.23 81 1014.3
20260508153207 18 179 3.2 6.4 0.00 0.23 0.23 81 1014.3
20260508153134 18 185 4.8 8.0 0.00 0.23 0.23 80 1014.3
20260508153105 18 183 4.8 8.0 0.00 0.23 0.23 81 1014.2
20260508153034 18 179 4.8 8.0 0.00 0.23 0.23 81 1014.3
20260508152755 18 188 3.2 8.0 0.00 0.23 0.23 81 1014.3
20260508152655 18 213 3.2 8.0 0.00 0.23 0.23 81 1014.4
20260508152557 18 148 6.4 14.5 0.00 0.23 0.23 81 1014.1
20260508152552 18 209 3.2 9.7 0.00 0.23 0.23 80 1014.3
20260508152544 18 188 6.4 9.7 0.00 0.23 0.23 80 1014.1
20260508152517 18 206 3.2 9.7 0.00 0.23 0.23 80 1014.3
20260508152445 18 190 3.2 9.7 0.00 0.23 0.23 81 1014.2
20260508152421 18 171 3.2 9.7 0.00 0.23 0.23 81 1014.2
20260508152410 18 158 3.2 9.7 0.00 0.23 0.23 81 1014.2
20260508152343 18 127 3.2 9.7 0.00 0.23 0.23 80 1014.2
20260508152312 18 171 3.2 9.7 0.00 0.23 0.23 80 1014.1
20260508152242 18 168 4.8 9.7 0.00 0.23 0.23 80 1014.2
20260508152211 18 165 4.8 9.7 0.00 0.23 0.23 80 1014.1
20260508151933 18 173 4.8 9.7 0.00 0.23 0.23 80 1014.1
20260508151626 18 189 6.4 9.7 0.00 0.23 0.23 81 1014.1
20260508151553 18 189 4.8 9.7 0.00 0.23 0.23 81 1014.1
20260508151523 18 193 6.4 14.5 0.00 0.23 0.23 81 1014.1
20260508151232 18 116 6.4 14.5 0.00 0.23 0.23 81 1014.1
20260508151133 18 165 6.4 14.5 0.00 0.23 0.23 81 1014.1
20260508151030 18 121 6.4 14.5 0.00 0.23 0.23 81 1014.2
20260508150932 18 158 6.4 14.5 0.00 0.23 0.23 81 1014.1
20260508150833 18 142 4.8 14.5 0.00 0.23 0.23 81 1014.1
20260508150807 18 142 4.8 14.5 0.00 0.23 0.23 81 1014.2
20260508150731 18 142 4.8 14.5 0.00 0.23 0.23 81 1014.2
20260508150632 18 178 4.8 14.5 0.00 0.23 0.23 81 1014.1
20260508150530 18 111 6.4 14.5 0.00 0.23 0.23 81 1014.2
20260508150433 18 135 6.4 14.5 0.00 0.23 0.23 82 1014.2
20260508150330 18 149 3.2 8.0 0.00 0.23 0.23 82 1014.2
20260508150303 18 188 3.2 9.7 0.00 0.23 0.23 82 1014.3
20260508150230 18 145 4.8 9.7 0.00 0.23 0.23 82 1014.3
20260508150129 18 145 4.8 9.7 0.00 0.23 0.23 82 1014.2
20260508150029 18 137 4.8 9.7 0.00 0.23 0.23 82 1014.2
20260508145926 18 145 4.8 9.7 0.00 0.23 0.23 82 1014.3
20260508145823 18 145 4.8 9.7 0.00 0.23 0.23 83 1014.3
20260508145804 18 142 4.8 9.7 0.00 0.23 0.23 83 1014.3
20260508145723 18 171 4.8 9.7 0.00 0.23 0.23 83 1014.3
20260508145621 18 182 4.8 9.7 0.00 0.23 0.23 82 1014.3
20260508145520 18 168 4.8 9.7 0.00 0.23 0.23 83 1014.2
20260508145419 18 169 6.4 9.7 0.00 0.23 0.23 83 1014.3
20260508145310 18 138 4.8 9.7 0.00 0.23 0.23 82 1014.3
20260508145306 18 154 4.8 9.7 0.00 0.23 0.23 82 1014.3
20260508145208 18 165 4.8 9.7 0.00 0.23 0.23 82 1014.3
20260508145106 18 173 6.4 11.3 0.00 0.23 0.23 82 1014.4
20260508145004 18 145 4.8 11.3 0.00 0.23 0.23 82 1014.3
20260508144903 18 178 4.8 11.3 0.00 0.23 0.23 82 1014.4
20260508144802 18 207 4.8 11.3 0.00 0.23 0.23 82 1014.4
20260508144704 18 140 4.8 11.3 0.00 0.23 0.23 82 1014.4
20260508144603 18 161 4.8 11.3 0.00 0.23 0.23 82 1014.4
20260508144503 18 131 4.8 11.3 0.00 0.23 0.23 82 1014.4
20260508144402 18 137 4.8 11.3 0.00 0.23 0.23 82 1014.3
20260508144302 18 125 6.4 11.3 0.00 0.23 0.23 82 1014.2
20260508144204 18 120 4.8 11.3 0.00 0.23 0.23 82 1014.4
20260508144102 18 140 6.4 11.3 0.00 0.23 0.23 81 1014.5
20260508144003 18 172 8.0 11.3 0.00 0.23 0.23 82 1014.5
20260508143902 18 164 8.0 11.3 0.00 0.23 0.23 82 1014.5
20260508143803 18 131 8.0 11.3 0.00 0.23 0.23 82 1014.5
20260508143702 18 151 8.0 11.3 0.00 0.23 0.23 82 1014.6
20260508143602 18 152 8.0 11.3 0.00 0.23 0.23 82 1014.4
20260508143459 18 158 8.0 11.3 0.00 0.23 0.23 82 1014.4
20260508143358 18 186 8.0 11.3 0.00 0.23 0.23 82 1014.5
20260508143304 18 190 6.4 11.3 0.00 0.23 0.23 83 1014.5
20260508143257 18 178 6.4 11.3 0.00 0.23 0.23 83 1014.5
20260508143149 18 111 4.8 9.7 0.00 0.23 0.23 87 1014.4
20260508143141 18 183 4.8 11.3 0.00 0.23 0.23 83 1014.4
20260508143108 18 142 4.8 11.3 0.00 0.23 0.23 84 1014.5
20260508143037 18 124 4.8 11.3 0.00 0.23 0.23 84 1014.4
20260508143006 18 142 6.4 11.3 0.00 0.23 0.23 85 1014.4
20260508142947 18 140 6.4 11.3 0.00 0.23 0.23 85 1014.5
20260508142931 18 147 8.0 11.3 0.00 0.23 0.23 85 1014.5
20260508142653 18 125 6.4 11.3 0.00 0.23 0.23 86 1014.4
20260508142623 18 141 4.8 11.3 0.00 0.23 0.23 86 1014.4
20260508142554 18 100 3.2 9.7 0.00 0.23 0.23 86 1014.4
20260508142526 18 106 3.2 9.7 0.00 0.23 0.23 86 1014.3
20260508142232 18 127 4.8 9.7 0.00 0.23 0.23 87 1014.4
20260508142132 17 147 4.8 9.7 0.00 0.23 0.23 87 1014.3
20260508142032 17 151 4.8 9.7 0.00 0.23 0.23 87 1014.3
20260508141933 17 169 6.4 9.7 0.00 0.23 0.23 86 1014.3
20260508141832 17 131 6.4 8.0 0.00 0.23 0.23 86 1014.3
20260508141805 17 161 4.8 8.0 0.00 0.23 0.23 87 1014.3
20260508141732 17 159 4.8 8.0 0.00 0.23 0.23 87 1014.3
20260508141632 17 178 4.8 8.0 0.00 0.23 0.23 87 1014.4
20260508141532 17 188 6.4 8.0 0.00 0.23 0.23 88 1014.5
20260508141431 17 180 4.8 8.0 0.00 0.23 0.23 88 1014.5
20260508141332 17 169 4.8 8.0 0.00 0.23 0.23 89 1014.5
20260508141304 17 172 4.8 8.0 0.00 0.23 0.23 89 1014.5
20260508141230 17 159 3.2 8.0 0.00 0.23 0.23 89 1014.5
20260508141131 17 168 3.2 8.0 0.00 0.23 0.23 89 1014.6
20260508141033 17 141 4.8 8.0 0.00 0.23 0.23 89 1014.6
20260508140932 17 145 4.8 8.0 0.00 0.23 0.23 89 1014.7
20260508140831 17 161 3.2 9.7 0.00 0.23 0.23 90 1014.6
20260508140804 17 172 3.2 9.7 0.00 0.23 0.23 90 1014.6
20260508140730 17 141 3.2 9.7 0.00 0.23 0.23 90 1014.6
20260508140630 17 141 3.2 9.7 0.00 0.23 0.23 90 1014.6
20260508140531 16 148 3.2 9.7 0.00 0.23 0.23 91 1014.6
20260508140430 16 149 3.2 9.7 0.00 0.23 0.23 91 1014.5
20260508140331 16 142 4.8 9.7 0.00 0.23 0.23 91 1014.6
20260508140305 16 141 4.8 9.7 0.00 0.23 0.23 91 1014.6
20260508140231 16 183 4.8 9.7 0.00 0.23 0.23 91 1014.6
20260508140223 16 152 3.2 8.0 0.00 0.23 0.23 91 1014.5
20260508140155 16 144 4.8 9.7 0.00 0.23 0.23 91 1014.6
20260508140126 16 186 4.8 9.7 0.00 0.23 0.23 91 1014.6
20260508140056 16 157 4.8 9.7 0.00 0.23 0.23 91 1014.6
20260508140029 16 135 3.2 8.0 0.00 0.23 0.23 91 1014.6
20260508135729 16 158 3.2 8.0 0.00 0.23 0.23 91 1014.5
20260508135630 16 144 1.6 6.4 0.00 0.23 0.23 91 1014.6
20260508135528 16 152 3.2 6.4 0.00 0.23 0.23 91 1014.6
20260508135429 16 152 3.2 6.4 0.00 0.23 0.23 91 1014.5
20260508135329 16 162 4.8 6.4 0.00 0.23 0.23 91 1014.6
20260508135306 16 165 4.8 6.4 0.00 0.23 0.23 91 1014.7
20260508135229 16 166 4.8 6.4 0.00 0.23 0.23 91 1014.7
20260508135129 16 141 4.8 6.4 0.00 0.23 0.23 91 1014.8
20260508135028 16 140 3.2 6.4 0.00 0.23 0.23 91 1014.7
20260508134928 16 151 3.2 6.4 0.00 0.23 0.23 91 1014.8
20260508134828 16 166 3.2 6.4 0.00 0.23 0.23 91 1014.8
20260508134802 16 168 3.2 6.4 0.00 0.23 0.23 91 1014.8
20260508134729 16 148 3.2 6.4 0.00 0.23 0.23 91 1014.7
20260508134626 16 147 3.2 6.4 0.00 0.23 0.23 91 1014.7
20260508134521 16 147 3.2 6.4 0.00 0.23 0.23 91 1014.7
20260508134414 16 147 3.2 6.4 0.00 0.23 0.23 92 1014.7
20260508134303 16 124 1.6 4.8 0.00 0.23 0.23 91 1014.7
20260508134211 16 124 1.6 4.8 0.00 0.23 0.23 91 1014.6
20260508134111 16 124 1.6 4.8 0.03 0.23 0.23 91 1014.6
20260508134009 16 124 3.2 6.4 0.05 0.23 0.23 91 1014.6
20260508133909 16 124 3.2 6.4 0.10 0.23 0.23 91 1014.6
20260508133803 16 124 3.2 6.4 0.10 0.23 0.23 91 1014.7
20260508133704 16 123 1.6 6.4 0.10 0.23 0.23 91 1014.6
20260508133605 16 148 1.6 6.4 0.10 0.23 0.23 91 1014.6
20260508133502 16 149 1.6 6.4 0.10 0.23 0.23 91 1014.7
20260508133403 16 168 3.2 6.4 0.10 0.23 0.23 91 1014.7
20260508133303 16 168 3.2 6.4 0.10 0.23 0.23 91 1014.8
20260508133222 16 162 3.2 6.4 0.13 0.23 0.23 92 1014.7
20260508133210 16 172 3.2 6.4 0.13 0.23 0.23 91 1014.8
20260508133140 16 178 3.2 6.4 0.13 0.23 0.23 92 1014.9
20260508133111 16 148 3.2 6.4 0.13 0.23 0.23 92 1014.8
20260508133041 16 162 1.6 6.4 0.13 0.23 0.23 92 1014.7
20260508132803 16 162 3.2 6.4 0.13 0.23 0.23 92 1014.7
20260508132714 16 137 3.2 6.4 0.13 0.23 0.23 92 1014.6
20260508132704 16 162 3.2 6.4 0.13 0.23 0.23 92 1014.8
20260508132634 16 145 3.2 6.4 0.13 0.23 0.23 92 1014.8
20260508132605 16 148 3.2 6.4 0.13 0.23 0.23 92 1014.7
20260508132533 16 138 3.2 6.4 0.13 0.23 0.23 92 1014.7
20260508132254 16 172 3.2 6.4 0.13 0.23 0.23 92 1014.6
20260508132240 16 131 3.2 4.8 0.13 0.23 0.23 92 1014.7
20260508132217 16 171 3.2 6.4 0.13 0.23 0.23 92 1014.5
20260508132134 16 128 3.2 4.8 0.13 0.23 0.23 92 1014.6
20260508132103 16 128 3.2 4.8 0.13 0.23 0.23 92 1014.6
20260508132034 16 131 3.2 4.8 0.13 0.23 0.23 92 1014.6
20260508131746 16 124 3.2 4.8 0.13 0.23 0.23 92 1014.7
20260508131644 16 75 3.2 4.8 0.13 0.23 0.23 92 1014.7
20260508131545 16 72 3.2 4.8 0.13 0.23 0.23 92 1014.7
20260508131442 16 0 1.6 4.8 0.13 0.23 0.23 92 1014.8
20260508131335 16 354 1.6 4.8 0.13 0.23 0.23 92 1014.7
20260508131302 16 354 1.6 4.8 0.13 0.23 0.23 92 1014.8
20260508131235 16 354 1.6 4.8 0.13 0.23 0.23 92 1014.8
20260508131134 16 354 3.2 4.8 0.13 0.23 0.23 92 1014.9
20260508131035 16 354 3.2 8.0 0.13 0.23 0.23 92 1014.9
20260508130932 16 13 3.2 8.0 0.13 0.23 0.23 92 1014.8
20260508130832 16 25 3.2 8.0 0.13 0.23 0.23 92 1014.8
20260508130802 16 39 3.2 8.0 0.13 0.23 0.23 92 1014.7
20260508130732 16 51 3.2 8.0 0.13 0.23 0.23 92 1014.7
20260508130631 15 58 1.6 8.0 0.13 0.23 0.23 92 1014.6
20260508130532 15 58 1.6 8.0 0.13 0.23 0.23 92 1014.5
20260508130427 15 58 1.6 8.0 0.13 0.23 0.23 92 1014.5
20260508130325 15 62 1.6 8.0 0.13 0.23 0.23 92 1014.5
20260508130303 15 66 3.2 8.0 0.13 0.23 0.23 92 1014.5
20260508130226 15 66 4.8 8.0 0.13 0.23 0.23 92 1014.5
20260508130122 15 127 4.8 8.0 0.15 0.23 0.23 92 1014.5
20260508130022 15 125 3.2 8.0 0.15 0.08 0.23 92 1014.5
20260508125919 15 149 3.2 8.0 0.15 0.08 0.23 92 1014.6
20260508125819 15 151 3.2 8.0 0.15 0.08 0.23 92 1014.5
20260508125805 15 149 4.8 8.0 0.15 0.08 0.23 92 1014.5
20260508125718 15 175 4.8 8.0 0.15 0.08 0.23 92 1014.5
20260508125615 15 145 3.2 8.0 0.15 0.08 0.23 92 1014.3
20260508125514 15 151 4.8 8.0 0.15 0.08 0.23 92 1014.4
20260508125412 15 133 4.8 8.0 0.15 0.08 0.23 92 1014.3
20260508125312 15 131 4.8 8.0 0.15 0.08 0.23 92 1014.3
20260508125306 15 128 4.8 8.0 0.15 0.08 0.23 92 1014.3
20260508125210 15 138 6.4 8.0 0.15 0.08 0.23 91 1014.3
20260508125108 15 141 4.8 8.0 0.15 0.08 0.23 91 1014.3
20260508125008 15 138 4.8 8.0 0.15 0.08 0.23 91 1014.2
20260508124906 15 135 4.8 8.0 0.15 0.08 0.23 91 1014.2
20260508124810 15 142 4.8 8.0 0.15 0.08 0.23 91 1014.2
20260508124805 15 141 4.8 8.0 0.15 0.08 0.23 91 1014.2
20260508124705 15 125 3.2 8.0 0.15 0.08 0.23 91 1014.2
20260508124656 15 113 4.8 8.0 0.18 0.08 0.23 91 1014.5
20260508124630 15 130 3.2 8.0 0.15 0.08 0.23 91 1014.3
20260508124601 15 102 3.2 8.0 0.15 0.08 0.23 91 1014.3
20260508124532 15 99 3.2 8.0 0.18 0.08 0.23 91 1014.5
20260508124251 15 117 4.8 8.0 0.18 0.08 0.23 91 1014.5
20260508124213 15 114 3.2 6.4 0.08 0.08 0.13 91 1014.8
20260508124157 15 107 3.2 8.0 0.18 0.08 0.20 91 1014.5
20260508124127 15 107 4.8 8.0 0.15 0.08 0.18 91 1014.5
20260508124056 15 118 4.8 8.0 0.08 0.08 0.13 91 1014.5
20260508124025 15 120 4.8 6.4 0.08 0.08 0.13 91 1014.6
20260508123735 15 133 3.2 6.4 0.08 0.08 0.13 91 1014.8
20260508123702 15 127 3.2 9.7 0.08 0.08 0.10 90 1014.6
20260508123646 16 158 3.2 4.8 0.08 0.08 0.13 91 1015.1
20260508123616 15 154 3.2 4.8 0.10 0.08 0.13 91 1015.1
20260508123546 15 140 3.2 4.8 0.10 0.08 0.13 91 1015.1
20260508123516 15 83 1.6 4.8 0.10 0.08 0.13 91 1015.1
20260508123457 15 72 1.6 3.2 0.10 0.08 0.10 91 1015.1
20260508123441 15 72 0.0 3.2 0.08 0.08 0.10 91 1015.1
20260508123411 15 72 0.0 3.2 0.08 0.08 0.10 91 1015.3
20260508123343 15 72 0.0 3.2 0.08 0.08 0.10 91 1015.3
20260508123316 15 72 0.0 3.2 0.08 0.08 0.10 91 1015.3
20260508123246 15 72 1.6 3.2 0.08 0.08 0.10 91 1015.2
20260508123227 15 72 1.6 3.2 0.08 0.08 0.10 91 1015.0
20260508123211 15 72 3.2 3.2 0.08 0.08 0.10 91 1015.0
20260508123142 15 72 1.6 3.2 0.08 0.08 0.10 91 1014.9
20260508123113 15 93 1.6 3.2 0.08 0.08 0.10 90 1014.8
20260508123042 15 125 1.6 3.2 0.08 0.08 0.10 90 1015.0
20260508122954 15 127 0.0 1.6 0.08 0.08 0.10 90 1015.0
20260508122938 15 127 0.0 1.6 0.08 0.08 0.10 90 1015.0
20260508122909 15 127 0.0 1.6 0.08 0.08 0.10 90 1015.1
20260508122843 15 127 0.0 3.2 0.08 0.08 0.10 90 1015.0
20260508122807 15 127 0.0 3.2 0.08 0.08 0.10 90 1015.0
20260508122739 15 127 0.0 3.2 0.08 0.08 0.10 90 1015.1
20260508122720 15 127 0.0 3.2 0.08 0.08 0.10 90 1015.1
20260508122704 15 127 0.0 3.2 0.08 0.08 0.10 90 1015.1
20260508122636 15 127 0.0 3.2 0.08 0.08 0.10 90 1015.1
20260508122607 15 127 0.0 3.2 0.08 0.08 0.10 90 1015.0
20260508122537 15 127 0.0 3.2 0.08 0.08 0.10 90 1015.0
20260508122507 15 127 0.0 3.2 0.08 0.08 0.10 90 1015.0
20260508122454 15 127 0.0 4.8 0.08 0.08 0.10 90 1015.0
20260508122435 15 127 1.6 4.8 0.08 0.08 0.10 90 1015.0
20260508122406 15 127 1.6 6.4 0.08 0.08 0.10 90 1015.0
20260508122333 15 127 1.6 8.0 0.08 0.08 0.10 90 1015.0
20260508122306 15 127 1.6 8.0 0.08 0.08 0.10 90 1015.1
20260508122232 15 127 1.6 8.0 0.08 0.08 0.10 90 1015.1
20260508122216 15 127 1.6 8.0 0.08 0.08 0.10 90 1015.1
20260508122156 15 127 0.0 8.0 0.08 0.08 0.10 90 1014.9
20260508122128 15 127 1.6 8.0 0.08 0.08 0.10 90 1014.8
20260508122058 15 127 3.2 8.0 0.08 0.08 0.10 90 1014.6
20260508122028 15 131 3.2 9.7 0.08 0.08 0.10 90 1014.6
20260508121957 15 127 3.2 9.7 0.08 0.08 0.10 90 1014.6
20260508120250 15 127 3.2 9.7 0.08 0.08 0.10 90 1014.6
20260508120209 15 110 4.8 9.7 0.08 0.08 0.08 90 1014.6
20260508120106 15 142 4.8 9.7 0.05 0.08 0.08 90 1014.6
20260508120005 15 152 4.8 9.7 0.05 0.03 0.08 90 1014.7
20260508115904 15 135 4.8 9.7 0.05 0.03 0.08 90 1014.8
20260508115804 15 138 4.8 9.7 0.05 0.03 0.08 89 1014.9
20260508115751 15 154 4.8 9.7 0.05 0.03 0.08 89 1014.9
20260508115706 15 152 4.8 16.1 0.05 0.03 0.08 89 1015.0
20260508115655 15 186 6.4 16.1 0.05 0.03 0.08 89 1015.0
20260508115630 15 117 4.8 16.1 0.05 0.03 0.08 89 1015.0
20260508115600 15 183 6.4 16.1 0.05 0.03 0.08 89 1015.0
20260508115530 15 159 4.8 16.1 0.05 0.03 0.08 89 1015.0
20260508115459 15 185 6.4 16.1 0.05 0.03 0.08 89 1015.0
20260508115202 15 188 6.4 16.1 0.05 0.03 0.08 89 1014.8
20260508115145 15 206 8.0 16.1 0.05 0.03 0.08 89 1014.7
20260508115124 15 157 4.8 16.1 0.05 0.03 0.08 89 1014.7
20260508115054 15 169 6.4 16.1 0.05 0.03 0.08 89 1014.6
20260508115024 15 138 6.4 16.1 0.05 0.03 0.08 89 1014.7
20260508114954 15 192 8.0 16.1 0.05 0.03 0.08 89 1014.7
20260508114702 15 154 6.4 9.7 0.05 0.03 0.08 89 1014.8
20260508114551 15 213 4.8 8.0 0.05 0.03 0.08 89 1014.6
20260508114449 15 161 6.4 8.0 0.05 0.03 0.08 89 1014.3
20260508114346 15 118 4.8 9.7 0.03 0.03 0.05 89 1014.4
20260508114245 15 138 4.8 9.7 0.03 0.03 0.05 88 1014.5
20260508114236 15 135 4.8 9.7 0.03 0.03 0.05 88 1014.5
20260508114144 15 138 3.2 9.7 0.03 0.03 0.05 88 1014.8
20260508114042 15 235 4.8 9.7 0.03 0.03 0.05 88 1015.2
20260508113941 15 235 4.8 11.3 0.03 0.03 0.05 88 1015.4
20260508113841 15 257 4.8 11.3 0.03 0.03 0.05 88 1015.4
20260508113738 15 234 4.8 14.5 0.03 0.03 0.05 88 1015.2
20260508113635 15 226 6.4 14.5 0.03 0.03 0.05 87 1015.2
20260508113534 15 231 6.4 14.5 0.03 0.03 0.03 87 1015.0
20260508113435 15 223 6.4 14.5 0.03 0.03 0.03 87 1014.8
20260508113334 15 190 4.8 14.5 0.03 0.03 0.03 87 1014.5
20260508113240 15 171 6.4 14.5 0.03 0.03 0.03 87 1014.2
20260508113234 15 173 6.4 14.5 0.03 0.03 0.03 87 1014.2
20260508113132 15 164 6.4 14.5 0.03 0.03 0.03 86 1014.1
20260508113034 15 140 8.0 14.5 0.03 0.03 0.03 86 1014.0
20260508112933 15 147 8.0 14.5 0.03 0.03 0.03 86 1014.0
20260508112835 15 147 8.0 14.5 0.03 0.03 0.03 86 1014.2
20260508112740 15 164 6.4 11.3 0.03 0.03 0.03 86 1014.4
20260508112733 15 171 6.4 11.3 0.03 0.03 0.03 86 1014.4
20260508112633 15 180 6.4 11.3 0.03 0.03 0.03 85 1014.3
20260508112533 15 199 6.4 11.3 0.03 0.03 0.03 85 1014.3
20260508112432 15 166 6.4 11.3 0.03 0.03 0.03 85 1014.3
20260508112333 15 151 6.4 11.3 0.03 0.03 0.03 85 1014.2
20260508112233 15 169 6.4 11.3 0.03 0.03 0.03 85 1014.1
20260508112130 15 171 6.4 11.3 0.03 0.03 0.03 85 1014.1
20260508112028 15 128 8.0 11.3 0.03 0.03 0.03 86 1014.0
20260508111929 15 171 6.4 11.3 0.03 0.03 0.03 86 1014.0
20260508111828 15 147 6.4 11.3 0.03 0.03 0.03 86 1014.0
20260508111736 15 142 6.4 11.3 0.03 0.03 0.03 86 1014.0
20260508111729 15 142 8.0 11.3 0.03 0.03 0.03 86 1014.0
20260508111628 15 125 8.0 9.7 0.03 0.03 0.03 86 1013.9
20260508111530 15 151 6.4 11.3 0.03 0.03 0.03 86 1014.0
20260508111428 15 151 6.4 11.3 0.03 0.03 0.03 86 1014.1
20260508111327 15 173 6.4 11.3 0.03 0.03 0.03 87 1014.1
20260508111237 15 158 6.4 11.3 0.03 0.03 0.03 87 1014.2
20260508111229 15 164 6.4 11.3 0.03 0.03 0.03 87 1014.2
20260508111126 15 152 4.8 11.3 0.03 0.03 0.03 87 1014.2
20260508111026 15 168 4.8 11.3 0.03 0.03 0.03 87 1014.3
20260508110928 15 179 4.8 11.3 0.03 0.03 0.03 87 1014.3
20260508110827 15 155 4.8 11.3 0.03 0.03 0.03 87 1014.2
20260508110727 15 195 4.8 11.3 0.03 0.03 0.03 87 1014.3
20260508110626 15 171 4.8 11.3 0.03 0.03 0.03 87 1014.3
20260508110529 15 159 4.8 11.3 0.03 0.03 0.03 87 1014.2
20260508110426 15 162 4.8 11.3 0.03 0.03 0.03 88 1014.2
20260508110328 16 118 4.8 11.3 0.03 0.03 0.03 88 1014.3
20260508110237 16 166 6.4 11.3 0.03 0.03 0.03 88 1014.2
20260508110228 16 147 6.4 11.3 0.03 0.03 0.03 88 1014.2
20260508110145 16 197 4.8 11.3 0.03 0.00 0.03 88 1014.7
20260508110133 16 123 4.8 8.0 0.03 0.03 0.03 88 1014.3
20260508110026 16 138 4.8 9.7 0.03 0.00 0.03 88 1014.5
20260508105955 16 128 4.8 11.3 0.03 0.00 0.03 88 1014.7
20260508105708 16 189 4.8 11.3 0.03 0.00 0.03 88 1014.8
20260508105605 16 161 4.8 11.3 0.03 0.00 0.03 87 1014.8
20260508105505 16 213 3.2 11.3 0.03 0.00 0.03 87 1014.9
20260508105407 16 190 1.6 14.5 0.03 0.00 0.03 87 1014.8
20260508105306 16 186 3.2 17.7 0.03 0.00 0.03 87 1014.7
20260508105205 16 186 4.8 17.7 0.03 0.00 0.03 87 1014.7
20260508105105 16 188 6.4 17.7 0.03 0.00 0.03 87 1014.7
20260508105005 16 176 6.4 17.7 0.03 0.00 0.03 87 1014.7
20260508104903 16 158 8.0 17.7 0.03 0.00 0.03 87 1014.6
20260508104803 16 186 8.0 17.7 0.03 0.00 0.03 87 1014.5
20260508104730 16 179 6.4 17.7 0.03 0.00 0.03 87 1014.5
20260508104702 16 157 6.4 17.7 0.03 0.00 0.03 87 1014.5
20260508104603 16 154 6.4 17.7 0.03 0.00 0.03 87 1014.5
20260508104502 16 131 8.0 17.7 0.03 0.00 0.03 87 1014.5
20260508104403 16 161 8.0 17.7 0.03 0.00 0.03 86 1014.6
20260508104304 16 207 6.4 11.3 0.03 0.00 0.03 86 1014.7
20260508104233 16 193 6.4 11.3 0.03 0.00 0.03 86 1014.7
20260508104202 16 183 6.4 11.3 0.03 0.00 0.03 86 1014.6
20260508104103 16 162 6.4 11.3 0.03 0.00 0.03 86 1014.5
20260508104004 16 168 6.4 11.3 0.03 0.00 0.03 86 1014.3
20260508103904 16 172 8.0 11.3 0.03 0.00 0.03 86 1014.2
20260508103802 16 158 6.4 9.7 0.03 0.00 0.03 86 1014.1
20260508103734 16 168 6.4 9.7 0.03 0.00 0.03 85 1014.1
20260508103702 16 130 6.4 8.0 0.03 0.00 0.03 85 1014.2
20260508103603 16 145 4.8 6.4 0.03 0.00 0.00 85 1014.4
20260508103504 16 148 3.2 6.4 0.00 0.00 0.00 85 1014.4
20260508103402 16 180 3.2 6.4 0.00 0.00 0.00 85 1014.5
20260508103303 16 228 1.6 6.4 0.00 0.00 0.00 85 1014.6
20260508103235 16 230 1.6 6.4 0.00 0.00 0.00 85 1014.6
20260508103202 16 230 1.6 6.4 0.00 0.00 0.00 85 1014.7
20260508103104 16 231 1.6 6.4 0.00 0.00 0.00 85 1014.7
20260508103003 16 231 1.6 6.4 0.00 0.00 0.00 85 1014.7
20260508102903 16 231 3.2 6.4 0.00 0.00 0.00 85 1014.7
20260508102802 16 252 1.6 6.4 0.00 0.00 0.00 85 1014.6
20260508102734 16 159 0.0 4.8 0.00 0.00 0.00 85 1014.6
20260508102703 16 157 0.0 4.8 0.00 0.00 0.00 85 1014.5
20260508102605 16 157 0.0 6.4 0.00 0.00 0.00 85 1014.5
20260508102503 16 157 0.0 6.4 0.00 0.00 0.00 85 1014.4
20260508102402 16 157 1.6 6.4 0.00 0.00 0.00 85 1014.4
20260508102306 16 157 1.6 6.4 0.00 0.00 0.00 85 1014.4
20260508102234 16 157 1.6 6.4 0.00 0.00 0.00 85 1014.4
20260508102203 16 157 3.2 6.4 0.00 0.00 0.00 85 1014.4
20260508102102 16 157 3.2 6.4 0.00 0.00 0.00 85 1014.4
20260508102003 16 192 3.2 6.4 0.00 0.00 0.00 84 1014.4
20260508101903 16 199 3.2 6.4 0.00 0.00 0.00 84 1014.5
20260508101802 16 199 3.2 6.4 0.00 0.00 0.00 85 1014.4
20260508101733 16 199 3.2 6.4 0.00 0.00 0.00 85 1014.4
20260508101702 16 199 3.2 6.4 0.00 0.00 0.00 85 1014.3
20260508101605 16 135 1.6 3.2 0.00 0.00 0.00 84 1014.3
20260508101504 16 128 0.0 3.2 0.00 0.00 0.00 84 1014.2
20260508101355 16 128 0.0 3.2 0.00 0.00 0.00 84 1014.1
20260508101233 16 128 0.0 3.2 0.00 0.00 0.00 84 1014.2
20260508101152 16 128 0.0 3.2 0.00 0.00 0.00 84 1014.2
20260508101052 16 128 0.0 3.2 0.00 0.00 0.00 84 1014.2
20260508100949 16 128 0.0 3.2 0.00 0.00 0.00 84 1014.2
20260508100848 16 128 1.6 3.2 0.00 0.00 0.00 84 1014.2
20260508100733 16 128 0.0 3.2 0.00 0.00 0.00 84 1014.2
20260508100644 16 128 0.0 3.2 0.00 0.00 0.00 84 1014.0
20260508100543 16 128 0.0 3.2 0.00 0.00 0.00 84 1014.0
20260508100442 16 128 0.0 3.2 0.00 0.00 0.00 84 1014.0
20260508100340 16 128 1.6 4.8 0.00 0.00 0.00 84 1014.0
20260508100232 16 128 1.6 4.8 0.00 0.00 0.00 84 1013.9
20260508100136 16 128 1.6 4.8 0.00 0.00 0.00 84 1014.0
20260508100038 16 128 0.0 4.8 0.00 0.00 0.00 84 1013.9
20260508095934 16 128 0.0 4.8 0.00 0.00 0.00 84 1013.9
20260508095833 16 128 0.0 4.8 0.00 0.00 0.00 84 1013.9
20260508095731 16 128 0.0 4.8 0.00 0.00 0.00 84 1013.7
20260508095632 16 128 1.6 4.8 0.00 0.00 0.00 84 1013.7
20260508095531 16 128 1.6 4.8 0.00 0.00 0.00 84 1013.8
20260508095432 16 128 1.6 6.4 0.00 0.00 0.00 84 1013.7
20260508095332 16 157 1.6 6.4 0.00 0.00 0.00 84 1013.8
20260508095231 16 157 1.6 6.4 0.00 0.00 0.00 84 1013.7
20260508095132 16 157 3.2 6.4 0.00 0.00 0.00 84 1013.6
20260508095032 16 157 3.2 6.4 0.00 0.00 0.00 84 1013.7
20260508094931 16 142 3.2 6.4 0.00 0.00 0.00 84 1013.7
20260508094831 16 158 3.2 6.4 0.00 0.00 0.00 84 1013.7
20260508094733 16 151 3.2 6.4 0.00 0.00 0.00 84 1013.6
20260508094632 16 175 3.2 6.4 0.00 0.00 0.00 84 1013.6
20260508094533 16 137 4.8 6.4 0.00 0.00 0.00 84 1013.6
20260508094432 16 137 4.8 6.4 0.00 0.00 0.00 84 1013.5
20260508094332 16 147 3.2 6.4 0.00 0.00 0.00 84 1013.6
20260508094232 16 148 3.2 6.4 0.00 0.00 0.00 84 1013.6
20260508094141 16 165 1.6 6.4 0.00 0.00 0.00 84 1013.7
20260508094135 16 164 1.6 4.8 0.00 0.00 0.00 84 1013.6
20260508094105 16 165 0.0 4.8 0.00 0.00 0.00 84 1013.7
20260508094037 16 165 0.0 4.8 0.00 0.00 0.00 84 1013.7
20260508094008 16 165 1.6 4.8 0.00 0.00 0.00 84 1013.7
20260508093940 16 165 1.6 6.4 0.00 0.00 0.00 84 1013.7
20260508093631 16 164 1.6 6.4 0.00 0.00 0.00 84 1013.8
20260508093531 16 162 1.6 6.4 0.00 0.00 0.00 84 1013.7
20260508093427 16 162 3.2 8.0 0.00 0.00 0.00 84 1013.7
20260508093327 16 159 3.2 8.0 0.00 0.00 0.00 84 1013.7
20260508093225 16 179 3.2 8.0 0.00 0.00 0.00 84 1013.7
20260508093124 16 172 3.2 8.0 0.00 0.00 0.00 84 1013.7
20260508093012 16 172 3.2 8.0 0.00 0.00 0.00 84 1013.8
20260508092910 16 186 3.2 8.0 0.00 0.00 0.00 84 1013.8
20260508092807 16 193 4.8 8.0 0.00 0.00 0.00 84 1013.9
20260508092730 16 159 4.8 8.0 0.00 0.00 0.00 84 1013.9
20260508092708 16 155 4.8 8.0 0.00 0.00 0.00 84 1013.8
20260508092644 16 162 3.2 6.4 0.00 0.00 0.00 83 1013.7
20260508092623 16 169 4.8 8.0 0.00 0.00 0.00 83 1013.8
20260508092554 16 176 4.8 8.0 0.00 0.00 0.00 83 1013.8
20260508092524 16 168 4.8 6.4 0.00 0.00 0.00 83 1013.7
20260508092452 16 164 3.2 6.4 0.00 0.00 0.00 83 1013.7
20260508092205 16 154 3.2 6.4 0.00 0.00 0.00 83 1013.7
20260508092059 16 152 3.2 6.4 0.00 0.00 0.00 83 1013.7
20260508091957 16 157 3.2 8.0 0.00 0.00 0.00 83 1013.7
20260508091857 16 155 3.2 8.0 0.00 0.00 0.00 83 1013.7
20260508091753 16 172 3.2 8.0 0.00 0.00 0.00 83 1013.8
20260508091726 16 175 3.2 8.0 0.00 0.00 0.00 83 1013.8
20260508091653 16 175 4.8 8.0 0.00 0.00 0.00 83 1013.8
20260508091634 16 162 4.8 8.0 0.00 0.00 0.00 83 1013.7
20260508091614 16 173 3.2 8.0 0.00 0.00 0.00 83 1013.8
20260508091543 16 154 3.2 8.0 0.00 0.00 0.00 83 1013.7
20260508091512 16 154 3.2 8.0 0.00 0.00 0.00 83 1013.7
20260508091445 16 162 3.2 8.0 0.00 0.00 0.00 83 1013.7
20260508091145 16 145 4.8 8.0 0.00 0.00 0.00 83 1013.7
20260508091125 16 190 3.2 6.4 0.00 0.00 0.00 84 1014.2
20260508091103 16 155 4.8 8.0 0.00 0.00 0.00 83 1013.6
20260508091031 16 142 6.4 8.0 0.00 0.00 0.00 83 1013.7
20260508090956 16 135 4.8 8.0 0.00 0.00 0.00 83 1013.8
20260508090929 16 125 4.8 8.0 0.00 0.00 0.00 83 1013.8
20260508090920 16 134 4.8 6.4 0.00 0.00 0.00 83 1013.8
20260508090644 16 164 3.2 6.4 0.00 0.00 0.00 83 1014.0
20260508090613 16 168 4.8 6.4 0.00 0.00 0.00 83 1014.0
20260508090543 16 169 3.2 6.4 0.00 0.00 0.00 83 1014.1
20260508090511 16 190 3.2 6.4 0.00 0.00 0.00 83 1014.1
20260508090439 16 190 3.2 6.4 0.00 0.00 0.00 83 1014.2
20260508090149 16 210 3.2 16.1 0.00 0.00 0.00 84 1014.1
20260508090138 16 219 3.2 8.0 0.00 0.00 0.00 84 1014.3
20260508090107 16 228 3.2 8.0 0.00 0.00 0.00 84 1014.2
20260508090040 16 250 3.2 14.5 0.00 0.00 0.00 84 1014.2
20260508090009 16 214 3.2 16.1 0.00 0.00 0.00 84 1014.2
20260508085937 16 214 3.2 16.1 0.00 0.00 0.00 84 1014.1
20260508085643 16 121 4.8 16.1 0.00 0.00 0.00 84 1013.7
20260508085635 16 192 3.2 16.1 0.00 0.00 0.00 84 1014.0
20260508085602 16 158 3.2 16.1 0.00 0.00 0.00 84 1013.9
20260508085536 16 158 4.8 16.1 0.00 0.00 0.00 84 1013.9
20260508085504 16 123 4.8 16.1 0.00 0.00 0.00 84 1013.7
20260508085434 16 121 4.8 16.1 0.00 0.00 0.00 84 1013.7
20260508085126 16 172 8.0 16.1 0.00 0.00 0.00 84 1013.7
20260508085026 16 106 9.7 16.1 0.00 0.00 0.00 84 1013.6
20260508084924 16 149 8.0 14.5 0.00 0.00 0.00 84 1013.7
20260508084823 16 133 6.4 14.5 0.00 0.00 0.00 84 1013.7
20260508084726 16 186 6.4 14.5 0.00 0.00 0.00 84 1013.7
20260508084722 16 154 6.4 14.5 0.00 0.00 0.00 84 1013.7
20260508084621 16 140 8.0 14.5 0.00 0.00 0.00 85 1013.5
20260508084519 16 171 9.7 14.5 0.00 0.00 0.00 85 1013.5
20260508084417 16 144 9.7 14.5 0.00 0.00 0.00 85 1013.6
20260508084314 16 144 8.0 14.5 0.00 0.00 0.00 85 1013.8
20260508084222 16 140 4.8 11.3 0.00 0.00 0.00 85 1013.8
20260508084214 16 147 4.8 11.3 0.00 0.00 0.00 85 1014.0
20260508084113 16 159 4.8 11.3 0.00 0.00 0.00 85 1014.2
20260508084011 16 172 6.4 11.3 0.00 0.00 0.00 85 1014.3
20260508083910 16 166 6.4 11.3 0.00 0.00 0.00 85 1014.3
20260508083808 16 188 8.0 11.3 0.00 0.00 0.00 84 1014.3
20260508083722 16 157 6.4 11.3 0.00 0.00 0.00 84 1014.3
20260508083708 16 178 6.4 11.3 0.00 0.00 0.00 84 1014.5
20260508083607 16 161 6.4 11.3 0.00 0.00 0.00 84 1014.7
20260508083506 16 185 8.0 11.3 0.00 0.00 0.00 84 1014.9
20260508083405 16 197 6.4 9.7 0.00 0.00 0.00 84 1014.9
20260508083306 16 196 6.4 8.0 0.00 0.00 0.00 84 1015.0
20260508083224 16 203 4.8 8.0 0.00 0.00 0.00 84 1015.0
20260508083203 16 224 4.8 8.0 0.00 0.00 0.00 84 1015.0
20260508083102 16 233 3.2 6.4 0.00 0.00 0.00 84 1015.0
20260508083001 16 240 4.8 6.4 0.00 0.00 0.00 84 1015.0
20260508082901 16 233 3.2 8.0 0.00 0.00 0.00 84 1014.8
20260508082757 16 331 3.2 8.0 0.00 0.00 0.00 84 1014.6
20260508082723 16 337 3.2 8.0 0.00 0.00 0.00 84 1014.6
20260508082657 16 337 1.6 8.0 0.00 0.00 0.00 84 1014.4
20260508082556 16 68 1.6 8.0 0.00 0.00 0.00 84 1014.3
20260508082453 16 68 3.2 8.0 0.00 0.00 0.00 85 1014.2
20260508082352 16 97 3.2 8.0 0.00 0.00 0.00 84 1014.2
20260508082247 16 134 4.8 8.0 0.00 0.00 0.00 84 1014.2
20260508082218 16 127 4.8 8.0 0.00 0.00 0.00 84 1014.2
20260508082147 16 138 6.4 8.0 0.00 0.00 0.00 84 1014.2
20260508082044 16 155 6.4 8.0 0.00 0.00 0.00 84 1014.2
20260508081942 16 140 4.8 8.0 0.00 0.00 0.00 84 1014.4
20260508081841 16 134 4.8 6.4 0.00 0.00 0.00 84 1014.5
20260508081739 16 152 3.2 6.4 0.00 0.00 0.00 84 1014.6
20260508081716 16 155 3.2 6.4 0.00 0.00 0.00 84 1014.7
20260508081639 16 157 3.2 8.0 0.00 0.00 0.00 84 1014.7
20260508081630 16 207 3.2 11.3 0.00 0.00 0.00 84 1014.8
20260508081604 16 182 3.2 9.7 0.00 0.00 0.00 84 1014.8
20260508081533 16 172 3.2 9.7 0.00 0.00 0.00 84 1014.8
20260508081504 16 204 3.2 9.7 0.00 0.00 0.00 84 1014.9
20260508081432 16 207 3.2 11.3 0.00 0.00 0.00 84 1014.9
20260508081129 16 196 3.2 11.3 0.00 0.00 0.00 84 1014.8
20260508081029 16 206 4.8 11.3 0.00 0.00 0.00 84 1014.8
20260508080927 16 212 4.8 11.3 0.00 0.00 0.00 84 1014.7
20260508080826 16 186 4.8 14.5 0.00 0.00 0.00 84 1014.6
20260508080726 16 212 4.8 14.5 0.00 0.00 0.00 83 1014.4
20260508080716 16 207 4.8 14.5 0.00 0.00 0.00 83 1014.3
20260508080623 16 155 6.4 14.5 0.00 0.00 0.00 83 1014.3
20260508080524 16 161 6.4 14.5 0.00 0.00 0.00 83 1014.1
20260508080423 16 171 8.0 14.5 0.00 0.00 0.00 83 1014.0
20260508080323 16 162 8.0 14.5 0.00 0.00 0.00 83 1014.1
20260508080223 16 121 8.0 14.5 0.00 0.00 0.00 83 1014.2
20260508080215 16 157 8.0 14.5 0.00 0.00 0.00 83 1014.3